<?xml version='1.0' encoding='UTF-8'?>
<gpx version="1.1" creator="https://www.komoot.de" xmlns="http://www.topografix.com/GPX/1/1" xmlns:xsi="http://www.w3.org/2001/XMLSchema-instance" xsi:schemaLocation="http://www.topografix.com/GPX/1/1 http://www.topografix.com/GPX/1/1/gpx.xsd">
  <metadata>
    <name>45_430AspGelterkBuusRhf</name>
    <author>
      <link href="https://www.komoot.de">
        <text>komoot</text>
        <type>text/html</type>
      </link>
    </author>
  </metadata>
  <trk>
    <name>45_430AspGelterkBuusRhf</name>
    <trkseg>
      <trkpt lat="47.541576" lon="7.870664">
        <ele>341.796709</ele>
        <time>2021-11-07T14:06:45.967Z</time>
      </trkpt>
      <trkpt lat="47.541576" lon="7.870664">
        <ele>341.796709</ele>
        <time>2021-11-07T14:06:46.006Z</time>
      </trkpt>
      <trkpt lat="47.541410" lon="7.870791">
        <ele>341.796709</ele>
        <time>2021-11-07T14:06:50.493Z</time>
      </trkpt>
      <trkpt lat="47.540933" lon="7.871187">
        <ele>341.796709</ele>
        <time>2021-11-07T14:07:03.377Z</time>
      </trkpt>
      <trkpt lat="47.540894" lon="7.871220">
        <ele>341.796709</ele>
        <time>2021-11-07T14:07:04.572Z</time>
      </trkpt>
      <trkpt lat="47.540693" lon="7.871390">
        <ele>342.022747</ele>
        <time>2021-11-07T14:07:10.163Z</time>
      </trkpt>
      <trkpt lat="47.540463" lon="7.871584">
        <ele>342.563283</ele>
        <time>2021-11-07T14:07:16.713Z</time>
      </trkpt>
      <trkpt lat="47.540265" lon="7.871808">
        <ele>343.072095</ele>
        <time>2021-11-07T14:07:22.443Z</time>
      </trkpt>
      <trkpt lat="47.540216" lon="7.871851">
        <ele>343.188409</ele>
        <time>2021-11-07T14:07:23.983Z</time>
      </trkpt>
      <trkpt lat="47.540034" lon="7.871970">
        <ele>343.594703</ele>
        <time>2021-11-07T14:07:28.642Z</time>
      </trkpt>
      <trkpt lat="47.539930" lon="7.872041">
        <ele>343.828572</ele>
        <time>2021-11-07T14:07:31.229Z</time>
      </trkpt>
      <trkpt lat="47.539841" lon="7.872151">
        <ele>344.065295</ele>
        <time>2021-11-07T14:07:34.260Z</time>
      </trkpt>
      <trkpt lat="47.539678" lon="7.872430">
        <ele>344.573998</ele>
        <time>2021-11-07T14:07:39.782Z</time>
      </trkpt>
      <trkpt lat="47.539222" lon="7.873416">
        <ele>345.863347</ele>
        <time>2021-11-07T14:07:57.323Z</time>
      </trkpt>
      <trkpt lat="47.538278" lon="7.874319">
        <ele>347.064006</ele>
        <time>2021-11-07T14:08:16.977Z</time>
      </trkpt>
      <trkpt lat="47.537716" lon="7.874966">
        <ele>348.041740</ele>
        <time>2021-11-07T14:08:30.952Z</time>
      </trkpt>
      <trkpt lat="47.537261" lon="7.875237">
        <ele>348.828780</ele>
        <time>2021-11-07T14:08:40.469Z</time>
      </trkpt>
      <trkpt lat="47.537182" lon="7.875293">
        <ele>348.969335</ele>
        <time>2021-11-07T14:08:42.457Z</time>
      </trkpt>
      <trkpt lat="47.536921" lon="7.875537">
        <ele>349.464658</ele>
        <time>2021-11-07T14:08:48.424Z</time>
      </trkpt>
      <trkpt lat="47.536757" lon="7.875759">
        <ele>349.821211</ele>
        <time>2021-11-07T14:08:53.026Z</time>
      </trkpt>
      <trkpt lat="47.536632" lon="7.875912">
        <ele>350.081450</ele>
        <time>2021-11-07T14:08:56.194Z</time>
      </trkpt>
      <trkpt lat="47.536444" lon="7.876177">
        <ele>350.882210</ele>
        <time>2021-11-07T14:09:03.156Z</time>
      </trkpt>
      <trkpt lat="47.535851" lon="7.877319">
        <ele>355.175714</ele>
        <time>2021-11-07T14:09:34.470Z</time>
      </trkpt>
      <trkpt lat="47.535770" lon="7.877432">
        <ele>355.666880</ele>
        <time>2021-11-07T14:09:38.650Z</time>
      </trkpt>
      <trkpt lat="47.535635" lon="7.877484">
        <ele>356.282612</ele>
        <time>2021-11-07T14:09:44.517Z</time>
      </trkpt>
      <trkpt lat="47.535551" lon="7.877487">
        <ele>356.653509</ele>
        <time>2021-11-07T14:09:46.425Z</time>
      </trkpt>
      <trkpt lat="47.535322" lon="7.877590">
        <ele>357.709930</ele>
        <time>2021-11-07T14:09:56.477Z</time>
      </trkpt>
      <trkpt lat="47.535088" lon="7.877742">
        <ele>358.958502</ele>
        <time>2021-11-07T14:10:04.309Z</time>
      </trkpt>
      <trkpt lat="47.534855" lon="7.878090">
        <ele>360.703509</ele>
        <time>2021-11-07T14:10:16.292Z</time>
      </trkpt>
      <trkpt lat="47.534778" lon="7.878270">
        <ele>361.462207</ele>
        <time>2021-11-07T14:10:23.599Z</time>
      </trkpt>
      <trkpt lat="47.534825" lon="7.878414">
        <ele>362.031682</ele>
        <time>2021-11-07T14:10:26.225Z</time>
      </trkpt>
      <trkpt lat="47.534946" lon="7.878790">
        <ele>363.514712</ele>
        <time>2021-11-07T14:10:38.273Z</time>
      </trkpt>
      <trkpt lat="47.534908" lon="7.878975">
        <ele>364.203205</ele>
        <time>2021-11-07T14:10:42.331Z</time>
      </trkpt>
      <trkpt lat="47.534616" lon="7.879490">
        <ele>366.597682</ele>
        <time>2021-11-07T14:10:59.278Z</time>
      </trkpt>
      <trkpt lat="47.533892" lon="7.880353">
        <ele>369.678574</ele>
        <time>2021-11-07T14:11:27.017Z</time>
      </trkpt>
      <trkpt lat="47.533606" lon="7.880961">
        <ele>371.051715</ele>
        <time>2021-11-07T14:11:39.326Z</time>
      </trkpt>
      <trkpt lat="47.533374" lon="7.881639">
        <ele>372.460235</ele>
        <time>2021-11-07T14:11:50.372Z</time>
      </trkpt>
      <trkpt lat="47.533014" lon="7.882949">
        <ele>372.879140</ele>
        <time>2021-11-07T14:12:08.287Z</time>
      </trkpt>
      <trkpt lat="47.532859" lon="7.883508">
        <ele>372.988871</ele>
        <time>2021-11-07T14:12:14.164Z</time>
      </trkpt>
      <trkpt lat="47.532713" lon="7.884122">
        <ele>373.107076</ele>
        <time>2021-11-07T14:12:19.862Z</time>
      </trkpt>
      <trkpt lat="47.532699" lon="7.884224">
        <ele>373.111292</ele>
        <time>2021-11-07T14:12:20.816Z</time>
      </trkpt>
      <trkpt lat="47.532670" lon="7.884773">
        <ele>372.576618</ele>
        <time>2021-11-07T14:12:25.310Z</time>
      </trkpt>
      <trkpt lat="47.532658" lon="7.884989">
        <ele>372.366186</ele>
        <time>2021-11-07T14:12:26.921Z</time>
      </trkpt>
      <trkpt lat="47.532650" lon="7.885569">
        <ele>371.802924</ele>
        <time>2021-11-07T14:12:31.424Z</time>
      </trkpt>
      <trkpt lat="47.532505" lon="7.887120">
        <ele>370.236926</ele>
        <time>2021-11-07T14:12:43.375Z</time>
      </trkpt>
      <trkpt lat="47.532288" lon="7.887728">
        <ele>369.449264</ele>
        <time>2021-11-07T14:12:48.552Z</time>
      </trkpt>
      <trkpt lat="47.532011" lon="7.888896">
        <ele>368.031400</ele>
        <time>2021-11-07T14:12:57.782Z</time>
      </trkpt>
      <trkpt lat="47.531843" lon="7.889349">
        <ele>367.477561</ele>
        <time>2021-11-07T14:13:01.818Z</time>
      </trkpt>
      <trkpt lat="47.531560" lon="7.889776">
        <ele>367.353419</ele>
        <time>2021-11-07T14:13:06.758Z</time>
      </trkpt>
      <trkpt lat="47.531265" lon="7.889937">
        <ele>367.256810</ele>
        <time>2021-11-07T14:13:10.726Z</time>
      </trkpt>
      <trkpt lat="47.531076" lon="7.890029">
        <ele>367.195676</ele>
        <time>2021-11-07T14:13:13.568Z</time>
      </trkpt>
      <trkpt lat="47.530606" lon="7.890373">
        <ele>367.034576</ele>
        <time>2021-11-07T14:13:21.417Z</time>
      </trkpt>
      <trkpt lat="47.530322" lon="7.890690">
        <ele>366.959641</ele>
        <time>2021-11-07T14:13:27.410Z</time>
      </trkpt>
      <trkpt lat="47.529972" lon="7.891210">
        <ele>367.462082</ele>
        <time>2021-11-07T14:13:36.572Z</time>
      </trkpt>
      <trkpt lat="47.529714" lon="7.891609">
        <ele>367.840132</ele>
        <time>2021-11-07T14:13:43.905Z</time>
      </trkpt>
      <trkpt lat="47.529695" lon="7.891638">
        <ele>367.867784</ele>
        <time>2021-11-07T14:13:44.892Z</time>
      </trkpt>
      <trkpt lat="47.529235" lon="7.892158">
        <ele>368.454273</ele>
        <time>2021-11-07T14:13:55.825Z</time>
      </trkpt>
      <trkpt lat="47.528331" lon="7.892682">
        <ele>369.604833</ele>
        <time>2021-11-07T14:14:14.528Z</time>
      </trkpt>
      <trkpt lat="47.528003" lon="7.892732">
        <ele>370.020699</ele>
        <time>2021-11-07T14:14:20.234Z</time>
      </trkpt>
      <trkpt lat="47.527498" lon="7.892650">
        <ele>370.661432</ele>
        <time>2021-11-07T14:14:29.707Z</time>
      </trkpt>
      <trkpt lat="47.527011" lon="7.893061">
        <ele>371.762154</ele>
        <time>2021-11-07T14:14:42.899Z</time>
      </trkpt>
      <trkpt lat="47.526709" lon="7.893617">
        <ele>373.066046</ele>
        <time>2021-11-07T14:14:55.431Z</time>
      </trkpt>
      <trkpt lat="47.526504" lon="7.894030">
        <ele>374.002693</ele>
        <time>2021-11-07T14:15:05.612Z</time>
      </trkpt>
      <trkpt lat="47.526451" lon="7.893983">
        <ele>374.169866</ele>
        <time>2021-11-07T14:15:07.001Z</time>
      </trkpt>
      <trkpt lat="47.526401" lon="7.893964">
        <ele>374.309557</ele>
        <time>2021-11-07T14:15:07.819Z</time>
      </trkpt>
      <trkpt lat="47.526335" lon="7.893960">
        <ele>374.488313</ele>
        <time>2021-11-07T14:15:09.893Z</time>
      </trkpt>
      <trkpt lat="47.526257" lon="7.894278">
        <ele>375.106554</ele>
        <time>2021-11-07T14:15:16.105Z</time>
      </trkpt>
      <trkpt lat="47.525725" lon="7.895110">
        <ele>376.826554</ele>
        <time>2021-11-07T14:15:35.187Z</time>
      </trkpt>
      <trkpt lat="47.525603" lon="7.895265">
        <ele>377.137260</ele>
        <time>2021-11-07T14:15:40.803Z</time>
      </trkpt>
      <trkpt lat="47.525631" lon="7.895442">
        <ele>377.374539</ele>
        <time>2021-11-07T14:15:43.652Z</time>
      </trkpt>
      <trkpt lat="47.525631" lon="7.895583">
        <ele>377.558575</ele>
        <time>2021-11-07T14:15:44.844Z</time>
      </trkpt>
      <trkpt lat="47.525622" lon="7.895944">
        <ele>378.030082</ele>
        <time>2021-11-07T14:15:52.279Z</time>
      </trkpt>
      <trkpt lat="47.525590" lon="7.896117">
        <ele>378.264204</ele>
        <time>2021-11-07T14:15:53.832Z</time>
      </trkpt>
      <trkpt lat="47.525518" lon="7.896336">
        <ele>378.582127</ele>
        <time>2021-11-07T14:15:58.640Z</time>
      </trkpt>
      <trkpt lat="47.524834" lon="7.897636">
        <ele>379.391983</ele>
        <time>2021-11-07T14:16:15.563Z</time>
      </trkpt>
      <trkpt lat="47.524617" lon="7.898216">
        <ele>379.406757</ele>
        <time>2021-11-07T14:16:21.736Z</time>
      </trkpt>
      <trkpt lat="47.524360" lon="7.898951">
        <ele>379.425198</ele>
        <time>2021-11-07T14:16:29.277Z</time>
      </trkpt>
      <trkpt lat="47.524309" lon="7.899115">
        <ele>379.469737</ele>
        <time>2021-11-07T14:16:31.191Z</time>
      </trkpt>
      <trkpt lat="47.523896" lon="7.900001">
        <ele>380.314478</ele>
        <time>2021-11-07T14:16:43.114Z</time>
      </trkpt>
      <trkpt lat="47.523861" lon="7.900049">
        <ele>380.369908</ele>
        <time>2021-11-07T14:16:44.093Z</time>
      </trkpt>
      <trkpt lat="47.523890" lon="7.900131">
        <ele>380.442539</ele>
        <time>2021-11-07T14:16:45.048Z</time>
      </trkpt>
      <trkpt lat="47.523945" lon="7.900256">
        <ele>380.559603</ele>
        <time>2021-11-07T14:16:46.639Z</time>
      </trkpt>
      <trkpt lat="47.523989" lon="7.900340">
        <ele>380.643018</ele>
        <time>2021-11-07T14:16:47.689Z</time>
      </trkpt>
      <trkpt lat="47.523957" lon="7.900371">
        <ele>380.687450</ele>
        <time>2021-11-07T14:16:48.394Z</time>
      </trkpt>
      <trkpt lat="47.523878" lon="7.900445">
        <ele>380.796066</ele>
        <time>2021-11-07T14:16:50.511Z</time>
      </trkpt>
      <trkpt lat="47.523739" lon="7.900557">
        <ele>380.979939</ele>
        <time>2021-11-07T14:16:53.442Z</time>
      </trkpt>
      <trkpt lat="47.523648" lon="7.900606">
        <ele>381.092450</ele>
        <time>2021-11-07T14:16:55.621Z</time>
      </trkpt>
      <trkpt lat="47.523620" lon="7.900698">
        <ele>381.171630</ele>
        <time>2021-11-07T14:16:57.584Z</time>
      </trkpt>
      <trkpt lat="47.523567" lon="7.900820">
        <ele>381.285456</ele>
        <time>2021-11-07T14:16:59.682Z</time>
      </trkpt>
      <trkpt lat="47.523433" lon="7.901043">
        <ele>381.523475</ele>
        <time>2021-11-07T14:17:04.925Z</time>
      </trkpt>
      <trkpt lat="47.523340" lon="7.901197">
        <ele>382.047163</ele>
        <time>2021-11-07T14:17:08.968Z</time>
      </trkpt>
      <trkpt lat="47.523036" lon="7.901580">
        <ele>383.545390</ele>
        <time>2021-11-07T14:17:20.664Z</time>
      </trkpt>
      <trkpt lat="47.522688" lon="7.901843">
        <ele>385.011956</ele>
        <time>2021-11-07T14:17:33.187Z</time>
      </trkpt>
      <trkpt lat="47.522554" lon="7.901999">
        <ele>385.651779</ele>
        <time>2021-11-07T14:17:38.701Z</time>
      </trkpt>
      <trkpt lat="47.522260" lon="7.902356">
        <ele>387.078953</ele>
        <time>2021-11-07T14:17:50.640Z</time>
      </trkpt>
      <trkpt lat="47.522132" lon="7.902476">
        <ele>387.647620</ele>
        <time>2021-11-07T14:17:55.444Z</time>
      </trkpt>
      <trkpt lat="47.522065" lon="7.902526">
        <ele>387.929248</ele>
        <time>2021-11-07T14:17:56.931Z</time>
      </trkpt>
      <trkpt lat="47.522038" lon="7.902562">
        <ele>388.065628</ele>
        <time>2021-11-07T14:17:58.454Z</time>
      </trkpt>
      <trkpt lat="47.522013" lon="7.902637">
        <ele>388.276315</ele>
        <time>2021-11-07T14:18:00.617Z</time>
      </trkpt>
      <trkpt lat="47.521792" lon="7.903347">
        <ele>389.934151</ele>
        <time>2021-11-07T14:18:16.229Z</time>
      </trkpt>
      <trkpt lat="47.521746" lon="7.903436">
        <ele>390.171815</ele>
        <time>2021-11-07T14:18:18.845Z</time>
      </trkpt>
      <trkpt lat="47.521746" lon="7.903436">
        <ele>390.171815</ele>
        <time>2021-11-07T14:18:18.889Z</time>
      </trkpt>
      <trkpt lat="47.521746" lon="7.903436">
        <ele>390.171815</ele>
        <time>2021-11-07T14:18:18.889Z</time>
      </trkpt>
      <trkpt lat="47.521376" lon="7.904386">
        <ele>392.497389</ele>
        <time>2021-11-07T14:18:32.621Z</time>
      </trkpt>
      <trkpt lat="47.521005" lon="7.905336">
        <ele>394.261450</ele>
        <time>2021-11-07T14:18:46.358Z</time>
      </trkpt>
      <trkpt lat="47.520635" lon="7.906286">
        <ele>395.143310</ele>
        <time>2021-11-07T14:19:00.083Z</time>
      </trkpt>
      <trkpt lat="47.520566" lon="7.906668">
        <ele>395.461285</ele>
        <time>2021-11-07T14:19:04.703Z</time>
      </trkpt>
      <trkpt lat="47.520528" lon="7.906930">
        <ele>395.676771</ele>
        <time>2021-11-07T14:19:08.204Z</time>
      </trkpt>
      <trkpt lat="47.520515" lon="7.907103">
        <ele>395.816745</ele>
        <time>2021-11-07T14:19:10.124Z</time>
      </trkpt>
      <trkpt lat="47.520506" lon="7.907236">
        <ele>395.924230</ele>
        <time>2021-11-07T14:19:11.265Z</time>
      </trkpt>
      <trkpt lat="47.520551" lon="7.907422">
        <ele>396.063288</ele>
        <time>2021-11-07T14:19:13.897Z</time>
      </trkpt>
      <trkpt lat="47.520733" lon="7.907655">
        <ele>396.112273</ele>
        <time>2021-11-07T14:19:17.354Z</time>
      </trkpt>
      <trkpt lat="47.520738" lon="7.907839">
        <ele>396.137593</ele>
        <time>2021-11-07T14:19:19.632Z</time>
      </trkpt>
      <trkpt lat="47.520493" lon="7.908683">
        <ele>396.263908</ele>
        <time>2021-11-07T14:19:27.950Z</time>
      </trkpt>
      <trkpt lat="47.519997" lon="7.910833">
        <ele>397.117184</ele>
        <time>2021-11-07T14:19:53.896Z</time>
      </trkpt>
      <trkpt lat="47.519891" lon="7.911129">
        <ele>397.328381</ele>
        <time>2021-11-07T14:19:58.486Z</time>
      </trkpt>
      <trkpt lat="47.519720" lon="7.911522">
        <ele>397.623082</ele>
        <time>2021-11-07T14:20:04.571Z</time>
      </trkpt>
      <trkpt lat="47.519421" lon="7.912098">
        <ele>398.081043</ele>
        <time>2021-11-07T14:20:14.137Z</time>
      </trkpt>
      <trkpt lat="47.517688" lon="7.914418">
        <ele>400.549375</ele>
        <time>2021-11-07T14:20:58.715Z</time>
      </trkpt>
      <trkpt lat="47.517281" lon="7.915238">
        <ele>401.219806</ele>
        <time>2021-11-07T14:21:11.729Z</time>
      </trkpt>
      <trkpt lat="47.517140" lon="7.915259">
        <ele>401.358045</ele>
        <time>2021-11-07T14:21:14.230Z</time>
      </trkpt>
      <trkpt lat="47.516806" lon="7.914896">
        <ele>401.762211</ele>
        <time>2021-11-07T14:21:21.805Z</time>
      </trkpt>
      <trkpt lat="47.516748" lon="7.914873">
        <ele>401.819440</ele>
        <time>2021-11-07T14:21:22.976Z</time>
      </trkpt>
      <trkpt lat="47.516662" lon="7.914835">
        <ele>401.900074</ele>
        <time>2021-11-07T14:21:24.767Z</time>
      </trkpt>
      <trkpt lat="47.516626" lon="7.914830">
        <ele>401.932561</ele>
        <time>2021-11-07T14:21:25.462Z</time>
      </trkpt>
      <trkpt lat="47.516590" lon="7.914840">
        <ele>401.965469</ele>
        <time>2021-11-07T14:21:26.058Z</time>
      </trkpt>
      <trkpt lat="47.516569" lon="7.914864">
        <ele>401.989304</ele>
        <time>2021-11-07T14:21:26.592Z</time>
      </trkpt>
      <trkpt lat="47.516544" lon="7.914936">
        <ele>402.038429</ele>
        <time>2021-11-07T14:21:27.439Z</time>
      </trkpt>
      <trkpt lat="47.516391" lon="7.915243">
        <ele>402.269943</ele>
        <time>2021-11-07T14:21:32.232Z</time>
      </trkpt>
      <trkpt lat="47.515014" lon="7.917030">
        <ele>404.102485</ele>
        <time>2021-11-07T14:22:06.008Z</time>
      </trkpt>
      <trkpt lat="47.514635" lon="7.917349">
        <ele>404.642387</ele>
        <time>2021-11-07T14:22:14.127Z</time>
      </trkpt>
      <trkpt lat="47.514561" lon="7.917409">
        <ele>404.746872</ele>
        <time>2021-11-07T14:22:16.019Z</time>
      </trkpt>
      <trkpt lat="47.514255" lon="7.917714">
        <ele>405.203699</ele>
        <time>2021-11-07T14:22:23.488Z</time>
      </trkpt>
      <trkpt lat="47.513378" lon="7.918393">
        <ele>407.072833</ele>
        <time>2021-11-07T14:22:45.214Z</time>
      </trkpt>
      <trkpt lat="47.513160" lon="7.918764">
        <ele>407.822603</ele>
        <time>2021-11-07T14:22:52.716Z</time>
      </trkpt>
      <trkpt lat="47.513058" lon="7.918896">
        <ele>408.128421</ele>
        <time>2021-11-07T14:22:55.871Z</time>
      </trkpt>
      <trkpt lat="47.512938" lon="7.919052">
        <ele>408.488915</ele>
        <time>2021-11-07T14:22:59.651Z</time>
      </trkpt>
      <trkpt lat="47.512664" lon="7.919306">
        <ele>409.218687</ele>
        <time>2021-11-07T14:23:07.874Z</time>
      </trkpt>
      <trkpt lat="47.512255" lon="7.919538">
        <ele>410.463731</ele>
        <time>2021-11-07T14:23:19.799Z</time>
      </trkpt>
      <trkpt lat="47.512085" lon="7.919732">
        <ele>411.196712</ele>
        <time>2021-11-07T14:23:26.008Z</time>
      </trkpt>
      <trkpt lat="47.511964" lon="7.919989">
        <ele>411.919305</ele>
        <time>2021-11-07T14:23:32.488Z</time>
      </trkpt>
      <trkpt lat="47.511883" lon="7.920133">
        <ele>412.351549</ele>
        <time>2021-11-07T14:23:36.502Z</time>
      </trkpt>
      <trkpt lat="47.511632" lon="7.920105">
        <ele>413.211130</ele>
        <time>2021-11-07T14:23:45.483Z</time>
      </trkpt>
      <trkpt lat="47.511375" lon="7.920079">
        <ele>414.090818</ele>
        <time>2021-11-07T14:23:53.979Z</time>
      </trkpt>
      <trkpt lat="47.510704" lon="7.919944">
        <ele>416.439615</ele>
        <time>2021-11-07T14:24:16.487Z</time>
      </trkpt>
      <trkpt lat="47.510627" lon="7.919935">
        <ele>416.720686</ele>
        <time>2021-11-07T14:24:18.823Z</time>
      </trkpt>
      <trkpt lat="47.510551" lon="7.919925">
        <ele>416.998337</ele>
        <time>2021-11-07T14:24:21.933Z</time>
      </trkpt>
      <trkpt lat="47.509902" lon="7.920009">
        <ele>419.369026</ele>
        <time>2021-11-07T14:24:42.530Z</time>
      </trkpt>
      <trkpt lat="47.509811" lon="7.920040">
        <ele>419.708824</ele>
        <time>2021-11-07T14:24:46.514Z</time>
      </trkpt>
      <trkpt lat="47.509809" lon="7.920155">
        <ele>419.991586</ele>
        <time>2021-11-07T14:24:48.108Z</time>
      </trkpt>
      <trkpt lat="47.509746" lon="7.920320">
        <ele>420.457464</ele>
        <time>2021-11-07T14:24:51.348Z</time>
      </trkpt>
      <trkpt lat="47.509586" lon="7.920497">
        <ele>421.184289</ele>
        <time>2021-11-07T14:24:59.726Z</time>
      </trkpt>
      <trkpt lat="47.509370" lon="7.920707">
        <ele>422.124640</ele>
        <time>2021-11-07T14:25:08.034Z</time>
      </trkpt>
      <trkpt lat="47.509138" lon="7.920939">
        <ele>423.322832</ele>
        <time>2021-11-07T14:25:16.995Z</time>
      </trkpt>
      <trkpt lat="47.508613" lon="7.921495">
        <ele>426.234837</ele>
        <time>2021-11-07T14:25:36.576Z</time>
      </trkpt>
      <trkpt lat="47.508585" lon="7.921587">
        <ele>426.542326</ele>
        <time>2021-11-07T14:25:37.508Z</time>
      </trkpt>
      <trkpt lat="47.508464" lon="7.921688">
        <ele>427.168971</ele>
        <time>2021-11-07T14:25:43.814Z</time>
      </trkpt>
      <trkpt lat="47.508248" lon="7.921916">
        <ele>428.365721</ele>
        <time>2021-11-07T14:25:51.400Z</time>
      </trkpt>
      <trkpt lat="47.508175" lon="7.922172">
        <ele>429.212483</ele>
        <time>2021-11-07T14:25:57.960Z</time>
      </trkpt>
      <trkpt lat="47.508171" lon="7.922196">
        <ele>429.287811</ele>
        <time>2021-11-07T14:25:59.799Z</time>
      </trkpt>
      <trkpt lat="47.508141" lon="7.922350">
        <ele>429.776214</ele>
        <time>2021-11-07T14:26:02.371Z</time>
      </trkpt>
      <trkpt lat="47.508128" lon="7.922441">
        <ele>430.059649</ele>
        <time>2021-11-07T14:26:05.167Z</time>
      </trkpt>
      <trkpt lat="47.508064" lon="7.922687">
        <ele>430.687902</ele>
        <time>2021-11-07T14:26:11.676Z</time>
      </trkpt>
      <trkpt lat="47.507981" lon="7.923001">
        <ele>431.207137</ele>
        <time>2021-11-07T14:26:19.990Z</time>
      </trkpt>
      <trkpt lat="47.507956" lon="7.923075">
        <ele>431.334548</ele>
        <time>2021-11-07T14:26:21.981Z</time>
      </trkpt>
      <trkpt lat="47.507876" lon="7.923234">
        <ele>431.639852</ele>
        <time>2021-11-07T14:26:26.306Z</time>
      </trkpt>
      <trkpt lat="47.507823" lon="7.923307">
        <ele>431.804883</ele>
        <time>2021-11-07T14:26:28.040Z</time>
      </trkpt>
      <trkpt lat="47.507715" lon="7.923412">
        <ele>432.099438</ele>
        <time>2021-11-07T14:26:32.756Z</time>
      </trkpt>
      <trkpt lat="47.507337" lon="7.923777">
        <ele>433.128272</ele>
        <time>2021-11-07T14:26:41.130Z</time>
      </trkpt>
      <trkpt lat="47.507226" lon="7.923898">
        <ele>433.442520</ele>
        <time>2021-11-07T14:26:44.722Z</time>
      </trkpt>
      <trkpt lat="47.507191" lon="7.924066">
        <ele>433.713254</ele>
        <time>2021-11-07T14:26:46.270Z</time>
      </trkpt>
      <trkpt lat="47.506562" lon="7.924949">
        <ele>433.931474</ele>
        <time>2021-11-07T14:26:59.169Z</time>
      </trkpt>
      <trkpt lat="47.506019" lon="7.926055">
        <ele>432.609686</ele>
        <time>2021-11-07T14:27:08.950Z</time>
      </trkpt>
      <trkpt lat="47.505768" lon="7.926636">
        <ele>432.054202</ele>
        <time>2021-11-07T14:27:14.030Z</time>
      </trkpt>
      <trkpt lat="47.505699" lon="7.926906">
        <ele>432.111181</ele>
        <time>2021-11-07T14:27:17.095Z</time>
      </trkpt>
      <trkpt lat="47.505690" lon="7.927200">
        <ele>432.169271</ele>
        <time>2021-11-07T14:27:19.249Z</time>
      </trkpt>
      <trkpt lat="47.505748" lon="7.927310">
        <ele>432.196813</ele>
        <time>2021-11-07T14:27:21.420Z</time>
      </trkpt>
      <trkpt lat="47.505858" lon="7.927551">
        <ele>432.254223</ele>
        <time>2021-11-07T14:27:24.184Z</time>
      </trkpt>
      <trkpt lat="47.505881" lon="7.927601">
        <ele>432.266163</ele>
        <time>2021-11-07T14:27:25.181Z</time>
      </trkpt>
      <trkpt lat="47.505868" lon="7.927611">
        <ele>432.270443</ele>
        <time>2021-11-07T14:27:25.409Z</time>
      </trkpt>
      <trkpt lat="47.505814" lon="7.927657">
        <ele>432.288648</ele>
        <time>2021-11-07T14:27:27.270Z</time>
      </trkpt>
      <trkpt lat="47.505253" lon="7.928170">
        <ele>432.481320</ele>
        <time>2021-11-07T14:27:39.090Z</time>
      </trkpt>
      <trkpt lat="47.504799" lon="7.928777">
        <ele>432.989917</ele>
        <time>2021-11-07T14:27:49.749Z</time>
      </trkpt>
      <trkpt lat="47.504724" lon="7.928871">
        <ele>433.114124</ele>
        <time>2021-11-07T14:27:53.385Z</time>
      </trkpt>
      <trkpt lat="47.504650" lon="7.928941">
        <ele>433.225120</ele>
        <time>2021-11-07T14:27:55.919Z</time>
      </trkpt>
      <trkpt lat="47.504005" lon="7.929312">
        <ele>434.099734</ele>
        <time>2021-11-07T14:28:10.360Z</time>
      </trkpt>
      <trkpt lat="47.503815" lon="7.929426">
        <ele>434.358857</ele>
        <time>2021-11-07T14:28:13.319Z</time>
      </trkpt>
      <trkpt lat="47.503598" lon="7.929585">
        <ele>434.664890</ele>
        <time>2021-11-07T14:28:18.595Z</time>
      </trkpt>
      <trkpt lat="47.503528" lon="7.929650">
        <ele>434.769331</ele>
        <time>2021-11-07T14:28:19.667Z</time>
      </trkpt>
      <trkpt lat="47.503485" lon="7.929688">
        <ele>434.832629</ele>
        <time>2021-11-07T14:28:21.179Z</time>
      </trkpt>
      <trkpt lat="47.503014" lon="7.930220">
        <ele>435.301724</ele>
        <time>2021-11-07T14:28:31.091Z</time>
      </trkpt>
      <trkpt lat="47.502761" lon="7.930610">
        <ele>435.590565</ele>
        <time>2021-11-07T14:28:37.445Z</time>
      </trkpt>
      <trkpt lat="47.502613" lon="7.930856">
        <ele>435.766537</ele>
        <time>2021-11-07T14:28:41.242Z</time>
      </trkpt>
      <trkpt lat="47.502400" lon="7.931256">
        <ele>436.038620</ele>
        <time>2021-11-07T14:28:48.046Z</time>
      </trkpt>
      <trkpt lat="47.502023" lon="7.932158">
        <ele>436.552271</ele>
        <time>2021-11-07T14:29:01.032Z</time>
      </trkpt>
      <trkpt lat="47.501901" lon="7.932351">
        <ele>436.672022</ele>
        <time>2021-11-07T14:29:04.791Z</time>
      </trkpt>
      <trkpt lat="47.501794" lon="7.932466">
        <ele>436.760701</ele>
        <time>2021-11-07T14:29:06.670Z</time>
      </trkpt>
      <trkpt lat="47.501463" lon="7.932668">
        <ele>437.000809</ele>
        <time>2021-11-07T14:29:12.810Z</time>
      </trkpt>
      <trkpt lat="47.501075" lon="7.932885">
        <ele>437.278973</ele>
        <time>2021-11-07T14:29:20.349Z</time>
      </trkpt>
      <trkpt lat="47.500990" lon="7.932950">
        <ele>437.343135</ele>
        <time>2021-11-07T14:29:22.167Z</time>
      </trkpt>
      <trkpt lat="47.500843" lon="7.933102">
        <ele>437.463274</ele>
        <time>2021-11-07T14:29:25.046Z</time>
      </trkpt>
      <trkpt lat="47.500435" lon="7.933872">
        <ele>437.820383</ele>
        <time>2021-11-07T14:29:34.877Z</time>
      </trkpt>
      <trkpt lat="47.500386" lon="7.933937">
        <ele>437.855924</ele>
        <time>2021-11-07T14:29:35.736Z</time>
      </trkpt>
      <trkpt lat="47.500352" lon="7.933976">
        <ele>437.879159</ele>
        <time>2021-11-07T14:29:36.498Z</time>
      </trkpt>
      <trkpt lat="47.500275" lon="7.934029">
        <ele>437.925028</ele>
        <time>2021-11-07T14:29:37.606Z</time>
      </trkpt>
      <trkpt lat="47.500208" lon="7.934071">
        <ele>437.964331</ele>
        <time>2021-11-07T14:29:38.839Z</time>
      </trkpt>
      <trkpt lat="47.500193" lon="7.934023">
        <ele>437.983631</ele>
        <time>2021-11-07T14:29:39.318Z</time>
      </trkpt>
      <trkpt lat="47.500169" lon="7.933984">
        <ele>438.002882</ele>
        <time>2021-11-07T14:29:39.751Z</time>
      </trkpt>
      <trkpt lat="47.500138" lon="7.933956">
        <ele>438.022499</ele>
        <time>2021-11-07T14:29:40.295Z</time>
      </trkpt>
      <trkpt lat="47.500067" lon="7.933946">
        <ele>438.061023</ele>
        <time>2021-11-07T14:29:41.243Z</time>
      </trkpt>
      <trkpt lat="47.500034" lon="7.933965">
        <ele>438.080150</ele>
        <time>2021-11-07T14:29:42.062Z</time>
      </trkpt>
      <trkpt lat="47.499993" lon="7.933864">
        <ele>438.123149</ele>
        <time>2021-11-07T14:29:43.604Z</time>
      </trkpt>
      <trkpt lat="47.499822" lon="7.933272">
        <ele>438.358105</ele>
        <time>2021-11-07T14:29:51.584Z</time>
      </trkpt>
      <trkpt lat="47.499538" lon="7.932868">
        <ele>438.848838</ele>
        <time>2021-11-07T14:29:59.566Z</time>
      </trkpt>
      <trkpt lat="47.499421" lon="7.932805">
        <ele>439.053012</ele>
        <time>2021-11-07T14:30:02.620Z</time>
      </trkpt>
      <trkpt lat="47.499354" lon="7.932769">
        <ele>439.169904</ele>
        <time>2021-11-07T14:30:04.347Z</time>
      </trkpt>
      <trkpt lat="47.499088" lon="7.932741">
        <ele>439.607229</ele>
        <time>2021-11-07T14:30:10.224Z</time>
      </trkpt>
      <trkpt lat="47.498997" lon="7.932758">
        <ele>439.757648</ele>
        <time>2021-11-07T14:30:12.262Z</time>
      </trkpt>
      <trkpt lat="47.498925" lon="7.932781">
        <ele>439.878442</ele>
        <time>2021-11-07T14:30:13.969Z</time>
      </trkpt>
      <trkpt lat="47.498481" lon="7.933011">
        <ele>440.649879</ele>
        <time>2021-11-07T14:30:23.223Z</time>
      </trkpt>
      <trkpt lat="47.498431" lon="7.932995">
        <ele>440.733770</ele>
        <time>2021-11-07T14:30:24.445Z</time>
      </trkpt>
      <trkpt lat="47.498391" lon="7.932972">
        <ele>440.804144</ele>
        <time>2021-11-07T14:30:25.364Z</time>
      </trkpt>
      <trkpt lat="47.498196" lon="7.932613">
        <ele>441.314513</ele>
        <time>2021-11-07T14:30:32.088Z</time>
      </trkpt>
      <trkpt lat="47.498138" lon="7.932522">
        <ele>441.456962</ele>
        <time>2021-11-07T14:30:34.088Z</time>
      </trkpt>
      <trkpt lat="47.498068" lon="7.932426">
        <ele>441.622152</ele>
        <time>2021-11-07T14:30:36.535Z</time>
      </trkpt>
      <trkpt lat="47.497907" lon="7.932254">
        <ele>441.965860</ele>
        <time>2021-11-07T14:30:41.237Z</time>
      </trkpt>
      <trkpt lat="47.497676" lon="7.932013">
        <ele>442.455079</ele>
        <time>2021-11-07T14:30:47.716Z</time>
      </trkpt>
      <trkpt lat="47.497430" lon="7.931757">
        <ele>442.975629</ele>
        <time>2021-11-07T14:30:55.307Z</time>
      </trkpt>
      <trkpt lat="47.497221" lon="7.931528">
        <ele>443.425759</ele>
        <time>2021-11-07T14:31:01.304Z</time>
      </trkpt>
      <trkpt lat="47.497104" lon="7.931414">
        <ele>443.668235</ele>
        <time>2021-11-07T14:31:04.098Z</time>
      </trkpt>
      <trkpt lat="47.496998" lon="7.931330">
        <ele>443.876368</ele>
        <time>2021-11-07T14:31:06.506Z</time>
      </trkpt>
      <trkpt lat="47.496424" lon="7.931075">
        <ele>444.910104</ele>
        <time>2021-11-07T14:31:17.258Z</time>
      </trkpt>
      <trkpt lat="47.496205" lon="7.930904">
        <ele>445.334943</ele>
        <time>2021-11-07T14:31:21.279Z</time>
      </trkpt>
      <trkpt lat="47.496162" lon="7.930842">
        <ele>445.437943</ele>
        <time>2021-11-07T14:31:22.845Z</time>
      </trkpt>
      <trkpt lat="47.496117" lon="7.930763">
        <ele>445.557728</ele>
        <time>2021-11-07T14:31:24.111Z</time>
      </trkpt>
      <trkpt lat="47.496051" lon="7.930607">
        <ele>445.771101</ele>
        <time>2021-11-07T14:31:26.891Z</time>
      </trkpt>
      <trkpt lat="47.495985" lon="7.930428">
        <ele>446.007496</ele>
        <time>2021-11-07T14:31:29.728Z</time>
      </trkpt>
      <trkpt lat="47.495906" lon="7.930197">
        <ele>446.307634</ele>
        <time>2021-11-07T14:31:33.897Z</time>
      </trkpt>
      <trkpt lat="47.495801" lon="7.929891">
        <ele>446.705493</ele>
        <time>2021-11-07T14:31:39.385Z</time>
      </trkpt>
      <trkpt lat="47.495622" lon="7.929400">
        <ele>447.352261</ele>
        <time>2021-11-07T14:31:47.997Z</time>
      </trkpt>
      <trkpt lat="47.495562" lon="7.929221">
        <ele>447.584203</ele>
        <time>2021-11-07T14:31:50.952Z</time>
      </trkpt>
      <trkpt lat="47.495530" lon="7.929063">
        <ele>447.961056</ele>
        <time>2021-11-07T14:31:53.430Z</time>
      </trkpt>
      <trkpt lat="47.495455" lon="7.928595">
        <ele>449.059965</ele>
        <time>2021-11-07T14:32:02.256Z</time>
      </trkpt>
      <trkpt lat="47.495268" lon="7.927740">
        <ele>451.113194</ele>
        <time>2021-11-07T14:32:19.270Z</time>
      </trkpt>
      <trkpt lat="47.495031" lon="7.927006">
        <ele>452.971837</ele>
        <time>2021-11-07T14:32:36.172Z</time>
      </trkpt>
      <trkpt lat="47.494945" lon="7.926765">
        <ele>453.594535</ele>
        <time>2021-11-07T14:32:42.815Z</time>
      </trkpt>
      <trkpt lat="47.494515" lon="7.925509">
        <ele>457.118433</ele>
        <time>2021-11-07T14:33:11.234Z</time>
      </trkpt>
      <trkpt lat="47.494438" lon="7.925289">
        <ele>457.739740</ele>
        <time>2021-11-07T14:33:16.667Z</time>
      </trkpt>
      <trkpt lat="47.494034" lon="7.924101">
        <ele>461.019604</ele>
        <time>2021-11-07T14:33:41.731Z</time>
      </trkpt>
      <trkpt lat="47.493708" lon="7.923049">
        <ele>463.703180</ele>
        <time>2021-11-07T14:34:03.303Z</time>
      </trkpt>
      <trkpt lat="47.493397" lon="7.921760">
        <ele>466.985263</ele>
        <time>2021-11-07T14:34:30.282Z</time>
      </trkpt>
      <trkpt lat="47.493307" lon="7.921373">
        <ele>468.217579</ele>
        <time>2021-11-07T14:34:38.776Z</time>
      </trkpt>
      <trkpt lat="47.493236" lon="7.921091">
        <ele>469.123692</ele>
        <time>2021-11-07T14:34:45.157Z</time>
      </trkpt>
      <trkpt lat="47.493132" lon="7.920716">
        <ele>470.344202</ele>
        <time>2021-11-07T14:34:54.207Z</time>
      </trkpt>
      <trkpt lat="47.492813" lon="7.919900">
        <ele>473.182727</ele>
        <time>2021-11-07T14:35:15.691Z</time>
      </trkpt>
      <trkpt lat="47.492584" lon="7.919482">
        <ele>474.804240</ele>
        <time>2021-11-07T14:35:28.463Z</time>
      </trkpt>
      <trkpt lat="47.492227" lon="7.918989">
        <ele>476.989698</ele>
        <time>2021-11-07T14:35:45.365Z</time>
      </trkpt>
      <trkpt lat="47.491324" lon="7.917985">
        <ele>482.044914</ele>
        <time>2021-11-07T14:36:22.149Z</time>
      </trkpt>
      <trkpt lat="47.490822" lon="7.917158">
        <ele>484.498320</ele>
        <time>2021-11-07T14:36:44.309Z</time>
      </trkpt>
      <trkpt lat="47.490607" lon="7.916690">
        <ele>485.659864</ele>
        <time>2021-11-07T14:36:54.507Z</time>
      </trkpt>
      <trkpt lat="47.490429" lon="7.916164">
        <ele>486.867299</ele>
        <time>2021-11-07T14:37:04.376Z</time>
      </trkpt>
      <trkpt lat="47.490283" lon="7.915612">
        <ele>488.074710</ele>
        <time>2021-11-07T14:37:14.204Z</time>
      </trkpt>
      <trkpt lat="47.489987" lon="7.914083">
        <ele>490.608122</ele>
        <time>2021-11-07T14:37:39.985Z</time>
      </trkpt>
      <trkpt lat="47.489951" lon="7.913893">
        <ele>490.922433</ele>
        <time>2021-11-07T14:37:42.979Z</time>
      </trkpt>
      <trkpt lat="47.489922" lon="7.913738">
        <ele>491.178611</ele>
        <time>2021-11-07T14:37:45.484Z</time>
      </trkpt>
      <trkpt lat="47.489843" lon="7.913398">
        <ele>491.751298</ele>
        <time>2021-11-07T14:37:50.831Z</time>
      </trkpt>
      <trkpt lat="47.489607" lon="7.912646">
        <ele>493.500984</ele>
        <time>2021-11-07T14:38:05.059Z</time>
      </trkpt>
      <trkpt lat="47.489216" lon="7.911685">
        <ele>496.258553</ele>
        <time>2021-11-07T14:38:27.374Z</time>
      </trkpt>
      <trkpt lat="47.489040" lon="7.911300">
        <ele>497.401223</ele>
        <time>2021-11-07T14:38:36.840Z</time>
      </trkpt>
      <trkpt lat="47.488908" lon="7.911009">
        <ele>498.262814</ele>
        <time>2021-11-07T14:38:45.401Z</time>
      </trkpt>
      <trkpt lat="47.488699" lon="7.910498">
        <ele>499.746521</ele>
        <time>2021-11-07T14:38:59.064Z</time>
      </trkpt>
      <trkpt lat="47.488366" lon="7.909318">
        <ele>502.943378</ele>
        <time>2021-11-07T14:39:24.937Z</time>
      </trkpt>
      <trkpt lat="47.488241" lon="7.908835">
        <ele>504.236386</ele>
        <time>2021-11-07T14:39:34.123Z</time>
      </trkpt>
      <trkpt lat="47.488185" lon="7.908663">
        <ele>504.713688</ele>
        <time>2021-11-07T14:39:38.175Z</time>
      </trkpt>
      <trkpt lat="47.488080" lon="7.908344">
        <ele>505.587895</ele>
        <time>2021-11-07T14:39:44.136Z</time>
      </trkpt>
      <trkpt lat="47.487763" lon="7.907711">
        <ele>507.347773</ele>
        <time>2021-11-07T14:39:59.194Z</time>
      </trkpt>
      <trkpt lat="47.487587" lon="7.907459">
        <ele>508.157282</ele>
        <time>2021-11-07T14:40:05.653Z</time>
      </trkpt>
      <trkpt lat="47.487378" lon="7.907191">
        <ele>509.071415</ele>
        <time>2021-11-07T14:40:12.852Z</time>
      </trkpt>
      <trkpt lat="47.487197" lon="7.906946">
        <ele>509.882251</ele>
        <time>2021-11-07T14:40:18.993Z</time>
      </trkpt>
      <trkpt lat="47.486969" lon="7.906583">
        <ele>510.989258</ele>
        <time>2021-11-07T14:40:27.302Z</time>
      </trkpt>
      <trkpt lat="47.486769" lon="7.905976">
        <ele>513.269134</ele>
        <time>2021-11-07T14:40:43.331Z</time>
      </trkpt>
      <trkpt lat="47.486724" lon="7.905485">
        <ele>515.172208</ele>
        <time>2021-11-07T14:40:56.003Z</time>
      </trkpt>
      <trkpt lat="47.486755" lon="7.904487">
        <ele>519.009327</ele>
        <time>2021-11-07T14:41:22.869Z</time>
      </trkpt>
      <trkpt lat="47.486721" lon="7.904326">
        <ele>519.657180</ele>
        <time>2021-11-07T14:41:27.885Z</time>
      </trkpt>
      <trkpt lat="47.486688" lon="7.904238">
        <ele>520.043720</ele>
        <time>2021-11-07T14:41:31.039Z</time>
      </trkpt>
      <trkpt lat="47.486480" lon="7.904016">
        <ele>521.501314</ele>
        <time>2021-11-07T14:41:40.144Z</time>
      </trkpt>
      <trkpt lat="47.486247" lon="7.904043">
        <ele>522.696701</ele>
        <time>2021-11-07T14:41:48.811Z</time>
      </trkpt>
      <trkpt lat="47.486049" lon="7.904262">
        <ele>523.943566</ele>
        <time>2021-11-07T14:42:00.207Z</time>
      </trkpt>
      <trkpt lat="47.485593" lon="7.905145">
        <ele>527.731611</ele>
        <time>2021-11-07T14:42:29.973Z</time>
      </trkpt>
      <trkpt lat="47.485331" lon="7.905337">
        <ele>529.206322</ele>
        <time>2021-11-07T14:42:38.557Z</time>
      </trkpt>
      <trkpt lat="47.485073" lon="7.905345">
        <ele>530.507966</ele>
        <time>2021-11-07T14:42:45.169Z</time>
      </trkpt>
      <trkpt lat="47.485049" lon="7.905336">
        <ele>530.632849</ele>
        <time>2021-11-07T14:42:46.766Z</time>
      </trkpt>
      <trkpt lat="47.484936" lon="7.905289">
        <ele>530.584913</ele>
        <time>2021-11-07T14:42:49.395Z</time>
      </trkpt>
      <trkpt lat="47.484713" lon="7.905133">
        <ele>530.250078</ele>
        <time>2021-11-07T14:42:55.015Z</time>
      </trkpt>
      <trkpt lat="47.484481" lon="7.904947">
        <ele>529.891896</ele>
        <time>2021-11-07T14:42:58.392Z</time>
      </trkpt>
      <trkpt lat="47.484248" lon="7.904856">
        <ele>529.564778</ele>
        <time>2021-11-07T14:43:01.420Z</time>
      </trkpt>
      <trkpt lat="47.484124" lon="7.904824">
        <ele>529.393913</ele>
        <time>2021-11-07T14:43:02.897Z</time>
      </trkpt>
      <trkpt lat="47.484064" lon="7.904808">
        <ele>529.311154</ele>
        <time>2021-11-07T14:43:03.566Z</time>
      </trkpt>
      <trkpt lat="47.484005" lon="7.904793">
        <ele>529.229891</ele>
        <time>2021-11-07T14:43:04.298Z</time>
      </trkpt>
      <trkpt lat="47.483385" lon="7.904708">
        <ele>528.384664</ele>
        <time>2021-11-07T14:43:10.752Z</time>
      </trkpt>
      <trkpt lat="47.483329" lon="7.904705">
        <ele>528.308597</ele>
        <time>2021-11-07T14:43:11.259Z</time>
      </trkpt>
      <trkpt lat="47.483101" lon="7.904680">
        <ele>526.878395</ele>
        <time>2021-11-07T14:43:13.389Z</time>
      </trkpt>
      <trkpt lat="47.482433" lon="7.904538">
        <ele>522.308882</ele>
        <time>2021-11-07T14:43:19.360Z</time>
      </trkpt>
      <trkpt lat="47.482157" lon="7.904346">
        <ele>520.243839</ele>
        <time>2021-11-07T14:43:22.073Z</time>
      </trkpt>
      <trkpt lat="47.481709" lon="7.903892">
        <ele>516.567174</ele>
        <time>2021-11-07T14:43:26.912Z</time>
      </trkpt>
      <trkpt lat="47.481588" lon="7.903776">
        <ele>515.677397</ele>
        <time>2021-11-07T14:43:28.198Z</time>
      </trkpt>
      <trkpt lat="47.481478" lon="7.903693">
        <ele>514.983232</ele>
        <time>2021-11-07T14:43:29.330Z</time>
      </trkpt>
      <trkpt lat="47.480980" lon="7.903461">
        <ele>512.048078</ele>
        <time>2021-11-07T14:43:34.161Z</time>
      </trkpt>
      <trkpt lat="47.478367" lon="7.903166">
        <ele>497.667182</ele>
        <time>2021-11-07T14:43:58.793Z</time>
      </trkpt>
      <trkpt lat="47.478182" lon="7.903109">
        <ele>496.647905</ele>
        <time>2021-11-07T14:44:00.537Z</time>
      </trkpt>
      <trkpt lat="47.478118" lon="7.903075">
        <ele>496.280072</ele>
        <time>2021-11-07T14:44:01.135Z</time>
      </trkpt>
      <trkpt lat="47.476982" lon="7.902234">
        <ele>488.199306</ele>
        <time>2021-11-07T14:44:12.629Z</time>
      </trkpt>
      <trkpt lat="47.476536" lon="7.901977">
        <ele>485.154513</ele>
        <time>2021-11-07T14:44:16.996Z</time>
      </trkpt>
      <trkpt lat="47.476364" lon="7.901870">
        <ele>484.053622</ele>
        <time>2021-11-07T14:44:18.692Z</time>
      </trkpt>
      <trkpt lat="47.475300" lon="7.901112">
        <ele>477.278113</ele>
        <time>2021-11-07T14:44:29.600Z</time>
      </trkpt>
      <trkpt lat="47.475163" lon="7.901034">
        <ele>476.435888</ele>
        <time>2021-11-07T14:44:30.926Z</time>
      </trkpt>
      <trkpt lat="47.474888" lon="7.900841">
        <ele>474.689563</ele>
        <time>2021-11-07T14:44:33.779Z</time>
      </trkpt>
      <trkpt lat="47.474617" lon="7.900560">
        <ele>473.050637</ele>
        <time>2021-11-07T14:44:36.908Z</time>
      </trkpt>
      <trkpt lat="47.474336" lon="7.900125">
        <ele>471.066656</ele>
        <time>2021-11-07T14:44:40.750Z</time>
      </trkpt>
      <trkpt lat="47.474186" lon="7.899915">
        <ele>470.059253</ele>
        <time>2021-11-07T14:44:42.685Z</time>
      </trkpt>
      <trkpt lat="47.474087" lon="7.899774">
        <ele>469.388902</ele>
        <time>2021-11-07T14:44:43.996Z</time>
      </trkpt>
      <trkpt lat="47.473931" lon="7.899567">
        <ele>468.366670</ele>
        <time>2021-11-07T14:44:45.956Z</time>
      </trkpt>
      <trkpt lat="47.473317" lon="7.898945">
        <ele>464.685071</ele>
        <time>2021-11-07T14:44:53.196Z</time>
      </trkpt>
      <trkpt lat="47.471910" lon="7.898392">
        <ele>457.222711</ele>
        <time>2021-11-07T14:45:06.790Z</time>
      </trkpt>
      <trkpt lat="47.471825" lon="7.898370">
        <ele>456.780389</ele>
        <time>2021-11-07T14:45:07.577Z</time>
      </trkpt>
      <trkpt lat="47.471597" lon="7.898344">
        <ele>455.658948</ele>
        <time>2021-11-07T14:45:09.730Z</time>
      </trkpt>
      <trkpt lat="47.471002" lon="7.898222">
        <ele>452.749057</ele>
        <time>2021-11-07T14:45:15.324Z</time>
      </trkpt>
      <trkpt lat="47.469999" lon="7.897879">
        <ele>447.791472</ele>
        <time>2021-11-07T14:45:25.076Z</time>
      </trkpt>
      <trkpt lat="47.469806" lon="7.897795">
        <ele>447.324494</ele>
        <time>2021-11-07T14:45:27.105Z</time>
      </trkpt>
      <trkpt lat="47.469534" lon="7.897638">
        <ele>446.646771</ele>
        <time>2021-11-07T14:45:30.190Z</time>
      </trkpt>
      <trkpt lat="47.469598" lon="7.897405">
        <ele>446.252144</ele>
        <time>2021-11-07T14:45:31.981Z</time>
      </trkpt>
      <trkpt lat="47.469652" lon="7.897139">
        <ele>445.816352</ele>
        <time>2021-11-07T14:45:34.006Z</time>
      </trkpt>
      <trkpt lat="47.469678" lon="7.896938">
        <ele>445.495243</ele>
        <time>2021-11-07T14:45:35.468Z</time>
      </trkpt>
      <trkpt lat="47.469692" lon="7.896826">
        <ele>445.316526</ele>
        <time>2021-11-07T14:45:36.365Z</time>
      </trkpt>
      <trkpt lat="47.469738" lon="7.896220">
        <ele>444.359686</ele>
        <time>2021-11-07T14:45:40.964Z</time>
      </trkpt>
      <trkpt lat="47.469747" lon="7.895922">
        <ele>443.891633</ele>
        <time>2021-11-07T14:45:43.203Z</time>
      </trkpt>
      <trkpt lat="47.469734" lon="7.895575">
        <ele>443.551349</ele>
        <time>2021-11-07T14:45:46.242Z</time>
      </trkpt>
      <trkpt lat="47.469728" lon="7.895384">
        <ele>443.458344</ele>
        <time>2021-11-07T14:45:47.838Z</time>
      </trkpt>
      <trkpt lat="47.469714" lon="7.895204">
        <ele>443.370213</ele>
        <time>2021-11-07T14:45:49.510Z</time>
      </trkpt>
      <trkpt lat="47.469691" lon="7.894970">
        <ele>443.255197</ele>
        <time>2021-11-07T14:45:51.647Z</time>
      </trkpt>
      <trkpt lat="47.469658" lon="7.894567">
        <ele>443.057741</ele>
        <time>2021-11-07T14:45:55.313Z</time>
      </trkpt>
      <trkpt lat="47.469496" lon="7.893085">
        <ele>442.319483</ele>
        <time>2021-11-07T14:46:08.528Z</time>
      </trkpt>
      <trkpt lat="47.469288" lon="7.891996">
        <ele>441.565335</ele>
        <time>2021-11-07T14:46:18.039Z</time>
      </trkpt>
      <trkpt lat="47.468951" lon="7.890216">
        <ele>440.371708</ele>
        <time>2021-11-07T14:46:33.043Z</time>
      </trkpt>
      <trkpt lat="47.468718" lon="7.888938">
        <ele>439.628709</ele>
        <time>2021-11-07T14:46:43.921Z</time>
      </trkpt>
      <trkpt lat="47.468546" lon="7.888014">
        <ele>439.090742</ele>
        <time>2021-11-07T14:46:52.247Z</time>
      </trkpt>
      <trkpt lat="47.468250" lon="7.886308">
        <ele>440.022193</ele>
        <time>2021-11-07T14:47:10.527Z</time>
      </trkpt>
      <trkpt lat="47.468174" lon="7.885724">
        <ele>440.342166</ele>
        <time>2021-11-07T14:47:19.398Z</time>
      </trkpt>
      <trkpt lat="47.468160" lon="7.885412">
        <ele>440.510399</ele>
        <time>2021-11-07T14:47:24.491Z</time>
      </trkpt>
      <trkpt lat="47.468160" lon="7.885131">
        <ele>441.096990</ele>
        <time>2021-11-07T14:47:29.118Z</time>
      </trkpt>
      <trkpt lat="47.468163" lon="7.885037">
        <ele>441.297006</ele>
        <time>2021-11-07T14:47:30.937Z</time>
      </trkpt>
      <trkpt lat="47.468170" lon="7.884753">
        <ele>441.901040</ele>
        <time>2021-11-07T14:47:35.227Z</time>
      </trkpt>
      <trkpt lat="47.468175" lon="7.884477">
        <ele>442.487879</ele>
        <time>2021-11-07T14:47:40.993Z</time>
      </trkpt>
      <trkpt lat="47.468085" lon="7.883534">
        <ele>444.512074</ele>
        <time>2021-11-07T14:48:00.447Z</time>
      </trkpt>
      <trkpt lat="47.467832" lon="7.882502">
        <ele>445.922223</ele>
        <time>2021-11-07T14:48:22.027Z</time>
      </trkpt>
      <trkpt lat="47.467789" lon="7.882188">
        <ele>445.673384</ele>
        <time>2021-11-07T14:48:27.665Z</time>
      </trkpt>
      <trkpt lat="47.467755" lon="7.881902">
        <ele>445.447838</ele>
        <time>2021-11-07T14:48:31.787Z</time>
      </trkpt>
      <trkpt lat="47.467712" lon="7.880819">
        <ele>444.605217</ele>
        <time>2021-11-07T14:48:40.539Z</time>
      </trkpt>
      <trkpt lat="47.467695" lon="7.879712">
        <ele>441.774989</ele>
        <time>2021-11-07T14:48:47.408Z</time>
      </trkpt>
      <trkpt lat="47.467758" lon="7.879308">
        <ele>439.678351</ele>
        <time>2021-11-07T14:48:49.893Z</time>
      </trkpt>
      <trkpt lat="47.467814" lon="7.879126">
        <ele>438.667145</ele>
        <time>2021-11-07T14:48:51.063Z</time>
      </trkpt>
      <trkpt lat="47.467908" lon="7.878819">
        <ele>436.962858</ele>
        <time>2021-11-07T14:48:53.090Z</time>
      </trkpt>
      <trkpt lat="47.468067" lon="7.878427">
        <ele>434.651110</ele>
        <time>2021-11-07T14:48:55.861Z</time>
      </trkpt>
      <trkpt lat="47.468104" lon="7.878354">
        <ele>434.189721</ele>
        <time>2021-11-07T14:48:56.372Z</time>
      </trkpt>
      <trkpt lat="47.468268" lon="7.878083">
        <ele>432.350406</ele>
        <time>2021-11-07T14:48:58.577Z</time>
      </trkpt>
      <trkpt lat="47.468308" lon="7.877998">
        <ele>431.826679</ele>
        <time>2021-11-07T14:48:59.207Z</time>
      </trkpt>
      <trkpt lat="47.468327" lon="7.877957">
        <ele>431.575309</ele>
        <time>2021-11-07T14:48:59.486Z</time>
      </trkpt>
      <trkpt lat="47.468377" lon="7.877826">
        <ele>430.814566</ele>
        <time>2021-11-07T14:49:00.363Z</time>
      </trkpt>
      <trkpt lat="47.468557" lon="7.876917">
        <ele>427.584218</ele>
        <time>2021-11-07T14:49:06.032Z</time>
      </trkpt>
      <trkpt lat="47.468639" lon="7.876439">
        <ele>425.931643</ele>
        <time>2021-11-07T14:49:09.225Z</time>
      </trkpt>
      <trkpt lat="47.468698" lon="7.876140">
        <ele>424.887866</ele>
        <time>2021-11-07T14:49:11.311Z</time>
      </trkpt>
      <trkpt lat="47.468806" lon="7.875696">
        <ele>423.306613</ele>
        <time>2021-11-07T14:49:14.584Z</time>
      </trkpt>
      <trkpt lat="47.468925" lon="7.875205">
        <ele>421.660868</ele>
        <time>2021-11-07T14:49:18.518Z</time>
      </trkpt>
      <trkpt lat="47.468989" lon="7.874967">
        <ele>421.309754</ele>
        <time>2021-11-07T14:49:20.334Z</time>
      </trkpt>
      <trkpt lat="47.469050" lon="7.874738">
        <ele>420.972351</ele>
        <time>2021-11-07T14:49:22.196Z</time>
      </trkpt>
      <trkpt lat="47.469068" lon="7.874689">
        <ele>420.895905</ele>
        <time>2021-11-07T14:49:22.599Z</time>
      </trkpt>
      <trkpt lat="47.469097" lon="7.874606">
        <ele>420.767830</ele>
        <time>2021-11-07T14:49:23.255Z</time>
      </trkpt>
      <trkpt lat="47.469136" lon="7.874516">
        <ele>420.621287</ele>
        <time>2021-11-07T14:49:24.015Z</time>
      </trkpt>
      <trkpt lat="47.469173" lon="7.874432">
        <ele>420.483853</ele>
        <time>2021-11-07T14:49:24.770Z</time>
      </trkpt>
      <trkpt lat="47.469224" lon="7.874328">
        <ele>420.307730</ele>
        <time>2021-11-07T14:49:25.777Z</time>
      </trkpt>
      <trkpt lat="47.469422" lon="7.873965">
        <ele>419.668347</ele>
        <time>2021-11-07T14:49:29.239Z</time>
      </trkpt>
      <trkpt lat="47.469489" lon="7.873809">
        <ele>419.414995</ele>
        <time>2021-11-07T14:49:30.644Z</time>
      </trkpt>
      <trkpt lat="47.469626" lon="7.873477">
        <ele>418.881803</ele>
        <time>2021-11-07T14:49:33.541Z</time>
      </trkpt>
      <trkpt lat="47.469682" lon="7.873326">
        <ele>418.645712</ele>
        <time>2021-11-07T14:49:34.868Z</time>
      </trkpt>
      <trkpt lat="47.469710" lon="7.873249">
        <ele>418.525859</ele>
        <time>2021-11-07T14:49:35.460Z</time>
      </trkpt>
      <trkpt lat="47.469969" lon="7.872276">
        <ele>417.284763</ele>
        <time>2021-11-07T14:49:43.406Z</time>
      </trkpt>
      <trkpt lat="47.470156" lon="7.871491">
        <ele>416.365109</ele>
        <time>2021-11-07T14:49:49.748Z</time>
      </trkpt>
      <trkpt lat="47.470217" lon="7.871214">
        <ele>416.043212</ele>
        <time>2021-11-07T14:49:51.909Z</time>
      </trkpt>
      <trkpt lat="47.470245" lon="7.871088">
        <ele>415.896661</ele>
        <time>2021-11-07T14:49:52.923Z</time>
      </trkpt>
      <trkpt lat="47.470316" lon="7.870753">
        <ele>415.508743</ele>
        <time>2021-11-07T14:49:55.743Z</time>
      </trkpt>
      <trkpt lat="47.470333" lon="7.870669">
        <ele>415.411859</ele>
        <time>2021-11-07T14:49:56.387Z</time>
      </trkpt>
      <trkpt lat="47.470350" lon="7.870570">
        <ele>415.298997</ele>
        <time>2021-11-07T14:49:57.180Z</time>
      </trkpt>
      <trkpt lat="47.470379" lon="7.870338">
        <ele>415.090750</ele>
        <time>2021-11-07T14:49:59.125Z</time>
      </trkpt>
      <trkpt lat="47.470397" lon="7.870147">
        <ele>414.983161</ele>
        <time>2021-11-07T14:50:01.256Z</time>
      </trkpt>
      <trkpt lat="47.470378" lon="7.869626">
        <ele>414.692073</ele>
        <time>2021-11-07T14:50:07.266Z</time>
      </trkpt>
      <trkpt lat="47.470309" lon="7.869201">
        <ele>414.448222</ele>
        <time>2021-11-07T14:50:12.555Z</time>
      </trkpt>
      <trkpt lat="47.470234" lon="7.868884">
        <ele>414.260848</ele>
        <time>2021-11-07T14:50:16.609Z</time>
      </trkpt>
      <trkpt lat="47.470127" lon="7.868484">
        <ele>414.020850</ele>
        <time>2021-11-07T14:50:22.064Z</time>
      </trkpt>
      <trkpt lat="47.469915" lon="7.867494">
        <ele>413.390255</ele>
        <time>2021-11-07T14:50:35.231Z</time>
      </trkpt>
      <trkpt lat="47.469808" lon="7.866690">
        <ele>412.825821</ele>
        <time>2021-11-07T14:50:44.955Z</time>
      </trkpt>
      <trkpt lat="47.469764" lon="7.866452">
        <ele>412.655863</ele>
        <time>2021-11-07T14:50:47.963Z</time>
      </trkpt>
      <trkpt lat="47.469710" lon="7.866208">
        <ele>412.479015</ele>
        <time>2021-11-07T14:50:50.927Z</time>
      </trkpt>
      <trkpt lat="47.469629" lon="7.865918">
        <ele>412.262878</ele>
        <time>2021-11-07T14:50:54.675Z</time>
      </trkpt>
      <trkpt lat="47.469305" lon="7.864692">
        <ele>411.002982</ele>
        <time>2021-11-07T14:51:09.046Z</time>
      </trkpt>
      <trkpt lat="47.469011" lon="7.863405">
        <ele>409.365301</ele>
        <time>2021-11-07T14:51:23.748Z</time>
      </trkpt>
      <trkpt lat="47.468986" lon="7.863323">
        <ele>409.256860</ele>
        <time>2021-11-07T14:51:24.605Z</time>
      </trkpt>
      <trkpt lat="47.468943" lon="7.863195">
        <ele>409.084551</ele>
        <time>2021-11-07T14:51:26.162Z</time>
      </trkpt>
      <trkpt lat="47.468859" lon="7.862978">
        <ele>408.783101</ele>
        <time>2021-11-07T14:51:28.932Z</time>
      </trkpt>
      <trkpt lat="47.468825" lon="7.862900">
        <ele>408.671217</ele>
        <time>2021-11-07T14:51:29.889Z</time>
      </trkpt>
      <trkpt lat="47.468543" lon="7.862357">
        <ele>408.035991</ele>
        <time>2021-11-07T14:51:37.316Z</time>
      </trkpt>
      <trkpt lat="47.468224" lon="7.861805">
        <ele>407.375803</ele>
        <time>2021-11-07T14:51:45.491Z</time>
      </trkpt>
      <trkpt lat="47.467944" lon="7.861300">
        <ele>406.782047</ele>
        <time>2021-11-07T14:51:52.870Z</time>
      </trkpt>
      <trkpt lat="47.467266" lon="7.860107">
        <ele>405.590138</ele>
        <time>2021-11-07T14:52:11.613Z</time>
      </trkpt>
      <trkpt lat="47.467047" lon="7.859682">
        <ele>405.235152</ele>
        <time>2021-11-07T14:52:17.815Z</time>
      </trkpt>
      <trkpt lat="47.466922" lon="7.859398">
        <ele>405.010033</ele>
        <time>2021-11-07T14:52:21.778Z</time>
      </trkpt>
      <trkpt lat="47.466824" lon="7.859137">
        <ele>404.811706</ele>
        <time>2021-11-07T14:52:25.477Z</time>
      </trkpt>
      <trkpt lat="47.466673" lon="7.858620">
        <ele>404.437588</ele>
        <time>2021-11-07T14:52:32.031Z</time>
      </trkpt>
      <trkpt lat="47.466576" lon="7.858236">
        <ele>404.033994</ele>
        <time>2021-11-07T14:52:36.733Z</time>
      </trkpt>
      <trkpt lat="47.466518" lon="7.858022">
        <ele>403.805781</ele>
        <time>2021-11-07T14:52:38.535Z</time>
      </trkpt>
      <trkpt lat="47.466347" lon="7.856973">
        <ele>402.737684</ele>
        <time>2021-11-07T14:52:46.969Z</time>
      </trkpt>
      <trkpt lat="47.466344" lon="7.856945">
        <ele>402.709623</ele>
        <time>2021-11-07T14:52:47.150Z</time>
      </trkpt>
      <trkpt lat="47.466322" lon="7.856655">
        <ele>402.420769</ele>
        <time>2021-11-07T14:52:49.516Z</time>
      </trkpt>
      <trkpt lat="47.466310" lon="7.856541">
        <ele>402.306568</ele>
        <time>2021-11-07T14:52:50.390Z</time>
      </trkpt>
      <trkpt lat="47.466334" lon="7.856525">
        <ele>402.268023</ele>
        <time>2021-11-07T14:52:50.699Z</time>
      </trkpt>
      <trkpt lat="47.466353" lon="7.856496">
        <ele>402.228049</ele>
        <time>2021-11-07T14:52:51.008Z</time>
      </trkpt>
      <trkpt lat="47.466361" lon="7.856459">
        <ele>402.189597</ele>
        <time>2021-11-07T14:52:51.276Z</time>
      </trkpt>
      <trkpt lat="47.466359" lon="7.856420">
        <ele>402.150883</ele>
        <time>2021-11-07T14:52:51.567Z</time>
      </trkpt>
      <trkpt lat="47.466324" lon="7.856362">
        <ele>402.073927</ele>
        <time>2021-11-07T14:52:52.204Z</time>
      </trkpt>
      <trkpt lat="47.466298" lon="7.856354">
        <ele>402.035042</ele>
        <time>2021-11-07T14:52:52.515Z</time>
      </trkpt>
      <trkpt lat="47.466295" lon="7.856234">
        <ele>401.916181</ele>
        <time>2021-11-07T14:52:53.435Z</time>
      </trkpt>
      <trkpt lat="47.466298" lon="7.855895">
        <ele>401.576152</ele>
        <time>2021-11-07T14:52:55.945Z</time>
      </trkpt>
      <trkpt lat="47.466324" lon="7.855062">
        <ele>400.733983</ele>
        <time>2021-11-07T14:53:02.314Z</time>
      </trkpt>
      <trkpt lat="47.466332" lon="7.854775">
        <ele>400.443887</ele>
        <time>2021-11-07T14:53:04.486Z</time>
      </trkpt>
      <trkpt lat="47.466338" lon="7.854554">
        <ele>400.220512</ele>
        <time>2021-11-07T14:53:06.169Z</time>
      </trkpt>
      <trkpt lat="47.466331" lon="7.853936">
        <ele>399.596288</ele>
        <time>2021-11-07T14:53:11.006Z</time>
      </trkpt>
      <trkpt lat="47.466256" lon="7.853287">
        <ele>399.149351</ele>
        <time>2021-11-07T14:53:16.337Z</time>
      </trkpt>
      <trkpt lat="47.466131" lon="7.852746">
        <ele>399.266664</ele>
        <time>2021-11-07T14:53:21.135Z</time>
      </trkpt>
      <trkpt lat="47.465906" lon="7.851776">
        <ele>399.477091</ele>
        <time>2021-11-07T14:53:32.152Z</time>
      </trkpt>
      <trkpt lat="47.465871" lon="7.851620">
        <ele>399.510817</ele>
        <time>2021-11-07T14:53:33.994Z</time>
      </trkpt>
      <trkpt lat="47.465896" lon="7.851603">
        <ele>399.519169</ele>
        <time>2021-11-07T14:53:34.465Z</time>
      </trkpt>
      <trkpt lat="47.465931" lon="7.851497">
        <ele>399.543375</ele>
        <time>2021-11-07T14:53:36.196Z</time>
      </trkpt>
      <trkpt lat="47.465925" lon="7.851458">
        <ele>399.551582</ele>
        <time>2021-11-07T14:53:36.770Z</time>
      </trkpt>
      <trkpt lat="47.466015" lon="7.851377">
        <ele>399.583558</ele>
        <time>2021-11-07T14:53:39.143Z</time>
      </trkpt>
      <trkpt lat="47.466390" lon="7.851107">
        <ele>400.173463</ele>
        <time>2021-11-07T14:53:47.916Z</time>
      </trkpt>
      <trkpt lat="47.466513" lon="7.851046">
        <ele>400.565868</ele>
        <time>2021-11-07T14:53:50.718Z</time>
      </trkpt>
      <trkpt lat="47.466576" lon="7.851019">
        <ele>400.764268</ele>
        <time>2021-11-07T14:53:52.370Z</time>
      </trkpt>
      <trkpt lat="47.466767" lon="7.850952">
        <ele>401.358030</ele>
        <time>2021-11-07T14:53:56.980Z</time>
      </trkpt>
      <trkpt lat="47.466831" lon="7.850929">
        <ele>401.557249</ele>
        <time>2021-11-07T14:53:58.427Z</time>
      </trkpt>
      <trkpt lat="47.467007" lon="7.850894">
        <ele>402.094405</ele>
        <time>2021-11-07T14:54:03.264Z</time>
      </trkpt>
      <trkpt lat="47.468532" lon="7.850782">
        <ele>407.466242</ele>
        <time>2021-11-07T14:54:49.452Z</time>
      </trkpt>
      <trkpt lat="47.468646" lon="7.850779">
        <ele>407.972106</ele>
        <time>2021-11-07T14:54:53.531Z</time>
      </trkpt>
      <trkpt lat="47.468794" lon="7.850777">
        <ele>408.628764</ele>
        <time>2021-11-07T14:54:57.509Z</time>
      </trkpt>
      <trkpt lat="47.468807" lon="7.850777">
        <ele>408.686441</ele>
        <time>2021-11-07T14:54:57.995Z</time>
      </trkpt>
      <trkpt lat="47.468931" lon="7.850775">
        <ele>409.236625</ele>
        <time>2021-11-07T14:55:01.930Z</time>
      </trkpt>
      <trkpt lat="47.469115" lon="7.850772">
        <ele>410.053027</ele>
        <time>2021-11-07T14:55:08.714Z</time>
      </trkpt>
      <trkpt lat="47.469315" lon="7.850771">
        <ele>410.940371</ele>
        <time>2021-11-07T14:55:15.060Z</time>
      </trkpt>
      <trkpt lat="47.469352" lon="7.850770">
        <ele>411.104556</ele>
        <time>2021-11-07T14:55:16.598Z</time>
      </trkpt>
      <trkpt lat="47.469464" lon="7.850775">
        <ele>411.601693</ele>
        <time>2021-11-07T14:55:20.686Z</time>
      </trkpt>
      <trkpt lat="47.469555" lon="7.850782">
        <ele>412.005978</ele>
        <time>2021-11-07T14:55:23.773Z</time>
      </trkpt>
      <trkpt lat="47.469772" lon="7.850804">
        <ele>412.970999</ele>
        <time>2021-11-07T14:55:32.921Z</time>
      </trkpt>
      <trkpt lat="47.470145" lon="7.850841">
        <ele>414.775010</ele>
        <time>2021-11-07T14:55:47.716Z</time>
      </trkpt>
      <trkpt lat="47.470421" lon="7.850868">
        <ele>416.117299</ele>
        <time>2021-11-07T14:55:58.384Z</time>
      </trkpt>
      <trkpt lat="47.470525" lon="7.850877">
        <ele>416.622849</ele>
        <time>2021-11-07T14:56:03.142Z</time>
      </trkpt>
      <trkpt lat="47.471325" lon="7.850935">
        <ele>420.509719</ele>
        <time>2021-11-07T14:56:34.999Z</time>
      </trkpt>
      <trkpt lat="47.471670" lon="7.851035">
        <ele>422.160779</ele>
        <time>2021-11-07T14:56:48.140Z</time>
      </trkpt>
      <trkpt lat="47.471898" lon="7.851131">
        <ele>423.156252</ele>
        <time>2021-11-07T14:56:58.315Z</time>
      </trkpt>
      <trkpt lat="47.472010" lon="7.851173">
        <ele>423.641453</ele>
        <time>2021-11-07T14:57:02.256Z</time>
      </trkpt>
      <trkpt lat="47.472075" lon="7.851198">
        <ele>423.923484</ele>
        <time>2021-11-07T14:57:04.934Z</time>
      </trkpt>
      <trkpt lat="47.472223" lon="7.851237">
        <ele>424.554769</ele>
        <time>2021-11-07T14:57:10.845Z</time>
      </trkpt>
      <trkpt lat="47.472594" lon="7.851279">
        <ele>426.117279</ele>
        <time>2021-11-07T14:57:24.298Z</time>
      </trkpt>
      <trkpt lat="47.473090" lon="7.851217">
        <ele>428.207574</ele>
        <time>2021-11-07T14:57:41.650Z</time>
      </trkpt>
      <trkpt lat="47.473132" lon="7.851211">
        <ele>428.384766</ele>
        <time>2021-11-07T14:57:43.406Z</time>
      </trkpt>
      <trkpt lat="47.473275" lon="7.851189">
        <ele>428.988510</ele>
        <time>2021-11-07T14:57:49.297Z</time>
      </trkpt>
      <trkpt lat="47.473706" lon="7.851184">
        <ele>430.859338</ele>
        <time>2021-11-07T14:58:03.882Z</time>
      </trkpt>
      <trkpt lat="47.474073" lon="7.851261">
        <ele>432.481795</ele>
        <time>2021-11-07T14:58:16.498Z</time>
      </trkpt>
      <trkpt lat="47.474489" lon="7.851469">
        <ele>434.403832</ele>
        <time>2021-11-07T14:58:32.519Z</time>
      </trkpt>
      <trkpt lat="47.475005" lon="7.851847">
        <ele>436.924105</ele>
        <time>2021-11-07T14:58:56.109Z</time>
      </trkpt>
      <trkpt lat="47.475474" lon="7.852041">
        <ele>439.500700</ele>
        <time>2021-11-07T14:59:16.761Z</time>
      </trkpt>
      <trkpt lat="47.475712" lon="7.852137">
        <ele>440.844152</ele>
        <time>2021-11-07T14:59:28.110Z</time>
      </trkpt>
      <trkpt lat="47.476000" lon="7.852252">
        <ele>442.468716</ele>
        <time>2021-11-07T14:59:41.104Z</time>
      </trkpt>
      <trkpt lat="47.476190" lon="7.852326">
        <ele>443.538705</ele>
        <time>2021-11-07T14:59:49.104Z</time>
      </trkpt>
      <trkpt lat="47.476289" lon="7.852358">
        <ele>444.090575</ele>
        <time>2021-11-07T14:59:54.173Z</time>
      </trkpt>
      <trkpt lat="47.476520" lon="7.852417">
        <ele>445.367205</ele>
        <time>2021-11-07T15:00:03.207Z</time>
      </trkpt>
      <trkpt lat="47.476682" lon="7.852438">
        <ele>446.252835</ele>
        <time>2021-11-07T15:00:10.764Z</time>
      </trkpt>
      <trkpt lat="47.476792" lon="7.852449">
        <ele>446.853260</ele>
        <time>2021-11-07T15:00:14.985Z</time>
      </trkpt>
      <trkpt lat="47.476984" lon="7.852449">
        <ele>447.640692</ele>
        <time>2021-11-07T15:00:23.105Z</time>
      </trkpt>
      <trkpt lat="47.479117" lon="7.852270">
        <ele>456.054149</ele>
        <time>2021-11-07T15:01:36.045Z</time>
      </trkpt>
      <trkpt lat="47.479244" lon="7.852259">
        <ele>456.600441</ele>
        <time>2021-11-07T15:01:40.030Z</time>
      </trkpt>
      <trkpt lat="47.479485" lon="7.852237">
        <ele>457.637302</ele>
        <time>2021-11-07T15:01:50.354Z</time>
      </trkpt>
      <trkpt lat="47.480217" lon="7.852063">
        <ele>460.820934</ele>
        <time>2021-11-07T15:02:19.685Z</time>
      </trkpt>
      <trkpt lat="47.480646" lon="7.851849">
        <ele>462.538293</ele>
        <time>2021-11-07T15:02:36.376Z</time>
      </trkpt>
      <trkpt lat="47.480750" lon="7.851790">
        <ele>462.920097</ele>
        <time>2021-11-07T15:02:41.254Z</time>
      </trkpt>
      <trkpt lat="47.480852" lon="7.851729">
        <ele>463.297219</ele>
        <time>2021-11-07T15:02:45.741Z</time>
      </trkpt>
      <trkpt lat="47.481334" lon="7.851437">
        <ele>465.082573</ele>
        <time>2021-11-07T15:03:01.562Z</time>
      </trkpt>
      <trkpt lat="47.481608" lon="7.851297">
        <ele>466.076232</ele>
        <time>2021-11-07T15:03:10.232Z</time>
      </trkpt>
      <trkpt lat="47.481766" lon="7.851223">
        <ele>466.644320</ele>
        <time>2021-11-07T15:03:16.888Z</time>
      </trkpt>
      <trkpt lat="47.482358" lon="7.850933">
        <ele>468.694149</ele>
        <time>2021-11-07T15:03:37.054Z</time>
      </trkpt>
      <trkpt lat="47.482608" lon="7.850799">
        <ele>469.523560</ele>
        <time>2021-11-07T15:03:44.815Z</time>
      </trkpt>
      <trkpt lat="47.482665" lon="7.850768">
        <ele>469.712989</ele>
        <time>2021-11-07T15:03:46.074Z</time>
      </trkpt>
      <trkpt lat="47.482738" lon="7.850728">
        <ele>469.955809</ele>
        <time>2021-11-07T15:03:48.392Z</time>
      </trkpt>
      <trkpt lat="47.482794" lon="7.850696">
        <ele>470.143063</ele>
        <time>2021-11-07T15:03:50.157Z</time>
      </trkpt>
      <trkpt lat="47.482807" lon="7.850688">
        <ele>470.186981</ele>
        <time>2021-11-07T15:03:50.472Z</time>
      </trkpt>
      <trkpt lat="47.482915" lon="7.850629">
        <ele>470.546091</ele>
        <time>2021-11-07T15:03:52.821Z</time>
      </trkpt>
      <trkpt lat="47.483011" lon="7.850573">
        <ele>470.867973</ele>
        <time>2021-11-07T15:03:56.069Z</time>
      </trkpt>
      <trkpt lat="47.483128" lon="7.850517">
        <ele>471.251548</ele>
        <time>2021-11-07T15:04:00.929Z</time>
      </trkpt>
      <trkpt lat="47.484041" lon="7.850377">
        <ele>473.988598</ele>
        <time>2021-11-07T15:04:24.841Z</time>
      </trkpt>
      <trkpt lat="47.484352" lon="7.850459">
        <ele>474.795803</ele>
        <time>2021-11-07T15:04:34.218Z</time>
      </trkpt>
      <trkpt lat="47.484518" lon="7.850556">
        <ele>475.251852</ele>
        <time>2021-11-07T15:04:41.219Z</time>
      </trkpt>
      <trkpt lat="47.484548" lon="7.850572">
        <ele>475.333337</ele>
        <time>2021-11-07T15:04:42.546Z</time>
      </trkpt>
      <trkpt lat="47.484631" lon="7.850586">
        <ele>475.546797</ele>
        <time>2021-11-07T15:04:44.661Z</time>
      </trkpt>
      <trkpt lat="47.484736" lon="7.850560">
        <ele>475.818831</ele>
        <time>2021-11-07T15:04:46.044Z</time>
      </trkpt>
      <trkpt lat="47.484922" lon="7.850473">
        <ele>476.317289</ele>
        <time>2021-11-07T15:04:51.856Z</time>
      </trkpt>
      <trkpt lat="47.485140" lon="7.850236">
        <ele>477.008513</ele>
        <time>2021-11-07T15:04:57.059Z</time>
      </trkpt>
      <trkpt lat="47.485302" lon="7.850164">
        <ele>477.440734</ele>
        <time>2021-11-07T15:05:00.522Z</time>
      </trkpt>
      <trkpt lat="47.485423" lon="7.850124">
        <ele>477.757542</ele>
        <time>2021-11-07T15:05:02.231Z</time>
      </trkpt>
      <trkpt lat="47.485547" lon="7.850079">
        <ele>478.065991</ele>
        <time>2021-11-07T15:05:05.941Z</time>
      </trkpt>
      <trkpt lat="47.485834" lon="7.849993">
        <ele>478.625497</ele>
        <time>2021-11-07T15:05:10.872Z</time>
      </trkpt>
      <trkpt lat="47.485932" lon="7.849984">
        <ele>478.813107</ele>
        <time>2021-11-07T15:05:13.798Z</time>
      </trkpt>
      <trkpt lat="47.485987" lon="7.849975">
        <ele>478.918837</ele>
        <time>2021-11-07T15:05:14.995Z</time>
      </trkpt>
      <trkpt lat="47.486083" lon="7.849946">
        <ele>479.106049</ele>
        <time>2021-11-07T15:05:16.055Z</time>
      </trkpt>
      <trkpt lat="47.486240" lon="7.849728">
        <ele>479.517414</ele>
        <time>2021-11-07T15:05:20.309Z</time>
      </trkpt>
      <trkpt lat="47.486279" lon="7.849670">
        <ele>479.623062</ele>
        <time>2021-11-07T15:05:21.389Z</time>
      </trkpt>
      <trkpt lat="47.486303" lon="7.849650">
        <ele>479.675690</ele>
        <time>2021-11-07T15:05:22.014Z</time>
      </trkpt>
      <trkpt lat="47.486469" lon="7.849589">
        <ele>480.002502</ele>
        <time>2021-11-07T15:05:24.611Z</time>
      </trkpt>
      <trkpt lat="47.486773" lon="7.849704">
        <ele>480.602039</ele>
        <time>2021-11-07T15:05:31.285Z</time>
      </trkpt>
      <trkpt lat="47.486894" lon="7.849739">
        <ele>480.837611</ele>
        <time>2021-11-07T15:05:34.529Z</time>
      </trkpt>
      <trkpt lat="47.487073" lon="7.849767">
        <ele>481.181535</ele>
        <time>2021-11-07T15:05:38.984Z</time>
      </trkpt>
      <trkpt lat="47.487219" lon="7.849782">
        <ele>481.485901</ele>
        <time>2021-11-07T15:05:42.593Z</time>
      </trkpt>
      <trkpt lat="47.487361" lon="7.849792">
        <ele>482.355666</ele>
        <time>2021-11-07T15:05:46.920Z</time>
      </trkpt>
      <trkpt lat="47.488402" lon="7.849885">
        <ele>488.736288</ele>
        <time>2021-11-07T15:06:30.222Z</time>
      </trkpt>
      <trkpt lat="47.488639" lon="7.849855">
        <ele>490.191592</ele>
        <time>2021-11-07T15:06:38.707Z</time>
      </trkpt>
      <trkpt lat="47.488939" lon="7.849720">
        <ele>492.110029</ele>
        <time>2021-11-07T15:06:52.627Z</time>
      </trkpt>
      <trkpt lat="47.488993" lon="7.849683">
        <ele>492.481210</ele>
        <time>2021-11-07T15:06:55.807Z</time>
      </trkpt>
      <trkpt lat="47.489046" lon="7.849642">
        <ele>492.978824</ele>
        <time>2021-11-07T15:06:59.893Z</time>
      </trkpt>
      <trkpt lat="47.489366" lon="7.849261">
        <ele>496.396207</ele>
        <time>2021-11-07T15:07:17.273Z</time>
      </trkpt>
      <trkpt lat="47.489636" lon="7.849127">
        <ele>498.765761</ele>
        <time>2021-11-07T15:07:29.193Z</time>
      </trkpt>
      <trkpt lat="47.489714" lon="7.849112">
        <ele>499.420231</ele>
        <time>2021-11-07T15:07:34.658Z</time>
      </trkpt>
      <trkpt lat="47.489830" lon="7.849115">
        <ele>500.385579</ele>
        <time>2021-11-07T15:07:39.147Z</time>
      </trkpt>
      <trkpt lat="47.490088" lon="7.849193">
        <ele>502.576654</ele>
        <time>2021-11-07T15:07:53.678Z</time>
      </trkpt>
      <trkpt lat="47.490655" lon="7.849589">
        <ele>507.912304</ele>
        <time>2021-11-07T15:08:22.716Z</time>
      </trkpt>
      <trkpt lat="47.490721" lon="7.849614">
        <ele>508.659706</ele>
        <time>2021-11-07T15:08:27.044Z</time>
      </trkpt>
      <trkpt lat="47.490767" lon="7.849632">
        <ele>509.181697</ele>
        <time>2021-11-07T15:08:29.225Z</time>
      </trkpt>
      <trkpt lat="47.491187" lon="7.849815">
        <ele>513.984910</ele>
        <time>2021-11-07T15:08:55.119Z</time>
      </trkpt>
      <trkpt lat="47.492141" lon="7.850226">
        <ele>524.885323</ele>
        <time>2021-11-07T15:09:53.039Z</time>
      </trkpt>
      <trkpt lat="47.492293" lon="7.850293">
        <ele>526.625248</ele>
        <time>2021-11-07T15:10:05.721Z</time>
      </trkpt>
      <trkpt lat="47.492414" lon="7.850375">
        <ele>528.089588</ele>
        <time>2021-11-07T15:10:14.781Z</time>
      </trkpt>
      <trkpt lat="47.492541" lon="7.850563">
        <ele>530.069372</ele>
        <time>2021-11-07T15:10:26.018Z</time>
      </trkpt>
      <trkpt lat="47.492601" lon="7.850751">
        <ele>531.617771</ele>
        <time>2021-11-07T15:10:36.033Z</time>
      </trkpt>
      <trkpt lat="47.492659" lon="7.851591">
        <ele>537.906007</ele>
        <time>2021-11-07T15:11:09.594Z</time>
      </trkpt>
      <trkpt lat="47.492688" lon="7.851670">
        <ele>538.575555</ele>
        <time>2021-11-07T15:11:14.773Z</time>
      </trkpt>
      <trkpt lat="47.492804" lon="7.851886">
        <ele>540.630351</ele>
        <time>2021-11-07T15:11:24.529Z</time>
      </trkpt>
      <trkpt lat="47.492920" lon="7.852087">
        <ele>542.598922</ele>
        <time>2021-11-07T15:11:36.153Z</time>
      </trkpt>
      <trkpt lat="47.493033" lon="7.852285">
        <ele>544.529056</ele>
        <time>2021-11-07T15:11:44.880Z</time>
      </trkpt>
      <trkpt lat="47.493043" lon="7.852307">
        <ele>544.726516</ele>
        <time>2021-11-07T15:11:46.049Z</time>
      </trkpt>
      <trkpt lat="47.493734" lon="7.854034">
        <ele>556.767240</ele>
        <time>2021-11-07T15:12:51.285Z</time>
      </trkpt>
      <trkpt lat="47.494057" lon="7.854507">
        <ele>560.629016</ele>
        <time>2021-11-07T15:13:14.355Z</time>
      </trkpt>
      <trkpt lat="47.494198" lon="7.854677">
        <ele>562.174655</ele>
        <time>2021-11-07T15:13:22.455Z</time>
      </trkpt>
      <trkpt lat="47.494366" lon="7.854877">
        <ele>563.511693</ele>
        <time>2021-11-07T15:13:33.991Z</time>
      </trkpt>
      <trkpt lat="47.494791" lon="7.855375">
        <ele>566.810094</ele>
        <time>2021-11-07T15:13:56.704Z</time>
      </trkpt>
      <trkpt lat="47.494903" lon="7.855508">
        <ele>567.683833</ele>
        <time>2021-11-07T15:14:04.379Z</time>
      </trkpt>
      <trkpt lat="47.495162" lon="7.855728">
        <ele>569.500895</ele>
        <time>2021-11-07T15:14:14.920Z</time>
      </trkpt>
      <trkpt lat="47.495219" lon="7.855764">
        <ele>569.877987</ele>
        <time>2021-11-07T15:14:19.029Z</time>
      </trkpt>
      <trkpt lat="47.495339" lon="7.855822">
        <ele>570.646111</ele>
        <time>2021-11-07T15:14:23.653Z</time>
      </trkpt>
      <trkpt lat="47.495626" lon="7.855911">
        <ele>572.430366</ele>
        <time>2021-11-07T15:14:33.903Z</time>
      </trkpt>
      <trkpt lat="47.495682" lon="7.855928">
        <ele>572.778208</ele>
        <time>2021-11-07T15:14:35.556Z</time>
      </trkpt>
      <trkpt lat="47.495761" lon="7.855963">
        <ele>573.175168</ele>
        <time>2021-11-07T15:14:36.515Z</time>
      </trkpt>
      <trkpt lat="47.495985" lon="7.856090">
        <ele>572.523571</ele>
        <time>2021-11-07T15:14:43.355Z</time>
      </trkpt>
      <trkpt lat="47.496570" lon="7.856657">
        <ele>570.624050</ele>
        <time>2021-11-07T15:14:51.559Z</time>
      </trkpt>
      <trkpt lat="47.496867" lon="7.857284">
        <ele>569.218670</ele>
        <time>2021-11-07T15:14:56.409Z</time>
      </trkpt>
      <trkpt lat="47.497045" lon="7.858131">
        <ele>566.034001</ele>
        <time>2021-11-07T15:15:01.764Z</time>
      </trkpt>
      <trkpt lat="47.497149" lon="7.858438">
        <ele>564.061316</ele>
        <time>2021-11-07T15:15:03.771Z</time>
      </trkpt>
      <trkpt lat="47.497833" lon="7.859414">
        <ele>555.983788</ele>
        <time>2021-11-07T15:15:12.004Z</time>
      </trkpt>
      <trkpt lat="47.497901" lon="7.859533">
        <ele>555.088551</ele>
        <time>2021-11-07T15:15:12.910Z</time>
      </trkpt>
      <trkpt lat="47.498026" lon="7.859791">
        <ele>553.264939</ele>
        <time>2021-11-07T15:15:14.793Z</time>
      </trkpt>
      <trkpt lat="47.498262" lon="7.860571">
        <ele>548.351775</ele>
        <time>2021-11-07T15:15:20.000Z</time>
      </trkpt>
      <trkpt lat="47.498298" lon="7.860778">
        <ele>547.122936</ele>
        <time>2021-11-07T15:15:21.288Z</time>
      </trkpt>
      <trkpt lat="47.498322" lon="7.861024">
        <ele>545.694013</ele>
        <time>2021-11-07T15:15:22.946Z</time>
      </trkpt>
      <trkpt lat="47.498287" lon="7.861611">
        <ele>542.306234</ele>
        <time>2021-11-07T15:15:26.371Z</time>
      </trkpt>
      <trkpt lat="47.497995" lon="7.862394">
        <ele>536.816018</ele>
        <time>2021-11-07T15:15:31.650Z</time>
      </trkpt>
      <trkpt lat="47.497959" lon="7.862857">
        <ele>532.469463</ele>
        <time>2021-11-07T15:15:34.333Z</time>
      </trkpt>
      <trkpt lat="47.497989" lon="7.863021">
        <ele>530.884887</ele>
        <time>2021-11-07T15:15:35.281Z</time>
      </trkpt>
      <trkpt lat="47.498044" lon="7.863155">
        <ele>529.422625</ele>
        <time>2021-11-07T15:15:36.201Z</time>
      </trkpt>
      <trkpt lat="47.498094" lon="7.863239">
        <ele>528.378546</ele>
        <time>2021-11-07T15:15:36.882Z</time>
      </trkpt>
      <trkpt lat="47.498143" lon="7.863313">
        <ele>527.412207</ele>
        <time>2021-11-07T15:15:37.481Z</time>
      </trkpt>
      <trkpt lat="47.498210" lon="7.863375">
        <ele>526.321459</ele>
        <time>2021-11-07T15:15:38.143Z</time>
      </trkpt>
      <trkpt lat="47.498435" lon="7.863451">
        <ele>523.135696</ele>
        <time>2021-11-07T15:15:40.156Z</time>
      </trkpt>
      <trkpt lat="47.498580" lon="7.863425">
        <ele>521.119473</ele>
        <time>2021-11-07T15:15:41.353Z</time>
      </trkpt>
      <trkpt lat="47.498820" lon="7.863196">
        <ele>517.177781</ele>
        <time>2021-11-07T15:15:43.768Z</time>
      </trkpt>
      <trkpt lat="47.499113" lon="7.862818">
        <ele>511.767673</ele>
        <time>2021-11-07T15:15:46.958Z</time>
      </trkpt>
      <trkpt lat="47.499273" lon="7.862595">
        <ele>508.608442</ele>
        <time>2021-11-07T15:15:48.783Z</time>
      </trkpt>
      <trkpt lat="47.499376" lon="7.862501">
        <ele>506.868971</ele>
        <time>2021-11-07T15:15:49.781Z</time>
      </trkpt>
      <trkpt lat="47.499406" lon="7.862482">
        <ele>506.399894</ele>
        <time>2021-11-07T15:15:50.066Z</time>
      </trkpt>
      <trkpt lat="47.499629" lon="7.862416">
        <ele>503.130752</ele>
        <time>2021-11-07T15:15:51.982Z</time>
      </trkpt>
      <trkpt lat="47.499952" lon="7.862524">
        <ele>498.370543</ele>
        <time>2021-11-07T15:15:54.750Z</time>
      </trkpt>
      <trkpt lat="47.500468" lon="7.862843">
        <ele>490.331927</ele>
        <time>2021-11-07T15:15:59.408Z</time>
      </trkpt>
      <trkpt lat="47.501035" lon="7.863348">
        <ele>482.542262</ele>
        <time>2021-11-07T15:16:05.085Z</time>
      </trkpt>
      <trkpt lat="47.501300" lon="7.863507">
        <ele>479.570198</ele>
        <time>2021-11-07T15:16:07.576Z</time>
      </trkpt>
      <trkpt lat="47.501511" lon="7.863635">
        <ele>477.200053</ele>
        <time>2021-11-07T15:16:09.560Z</time>
      </trkpt>
      <trkpt lat="47.501653" lon="7.863755">
        <ele>475.500527</ele>
        <time>2021-11-07T15:16:10.937Z</time>
      </trkpt>
      <trkpt lat="47.501711" lon="7.863821">
        <ele>474.740133</ele>
        <time>2021-11-07T15:16:11.571Z</time>
      </trkpt>
      <trkpt lat="47.501772" lon="7.863893">
        <ele>473.929212</ele>
        <time>2021-11-07T15:16:12.270Z</time>
      </trkpt>
      <trkpt lat="47.501887" lon="7.864052">
        <ele>472.293599</ele>
        <time>2021-11-07T15:16:13.607Z</time>
      </trkpt>
      <trkpt lat="47.502040" lon="7.864236">
        <ele>470.244641</ele>
        <time>2021-11-07T15:16:15.297Z</time>
      </trkpt>
      <trkpt lat="47.502167" lon="7.864327">
        <ele>468.778093</ele>
        <time>2021-11-07T15:16:16.536Z</time>
      </trkpt>
      <trkpt lat="47.502294" lon="7.864417">
        <ele>467.470812</ele>
        <time>2021-11-07T15:16:17.714Z</time>
      </trkpt>
      <trkpt lat="47.502827" lon="7.864774">
        <ele>462.311921</ele>
        <time>2021-11-07T15:16:22.792Z</time>
      </trkpt>
      <trkpt lat="47.502843" lon="7.864785">
        <ele>462.156355</ele>
        <time>2021-11-07T15:16:22.942Z</time>
      </trkpt>
      <trkpt lat="47.502975" lon="7.864876">
        <ele>460.872302</ele>
        <time>2021-11-07T15:16:24.192Z</time>
      </trkpt>
      <trkpt lat="47.503068" lon="7.864937">
        <ele>459.975301</ele>
        <time>2021-11-07T15:16:25.174Z</time>
      </trkpt>
      <trkpt lat="47.503106" lon="7.864958">
        <ele>459.617618</ele>
        <time>2021-11-07T15:16:25.531Z</time>
      </trkpt>
      <trkpt lat="47.503152" lon="7.864980">
        <ele>459.191332</ele>
        <time>2021-11-07T15:16:25.968Z</time>
      </trkpt>
      <trkpt lat="47.503195" lon="7.864995">
        <ele>458.801761</ele>
        <time>2021-11-07T15:16:26.330Z</time>
      </trkpt>
      <trkpt lat="47.503247" lon="7.865009">
        <ele>458.335690</ele>
        <time>2021-11-07T15:16:26.795Z</time>
      </trkpt>
      <trkpt lat="47.503302" lon="7.865016">
        <ele>457.848897</ele>
        <time>2021-11-07T15:16:27.262Z</time>
      </trkpt>
      <trkpt lat="47.503852" lon="7.864881">
        <ele>452.932639</ele>
        <time>2021-11-07T15:16:32.290Z</time>
      </trkpt>
      <trkpt lat="47.504143" lon="7.864781">
        <ele>451.072750</ele>
        <time>2021-11-07T15:16:34.968Z</time>
      </trkpt>
      <trkpt lat="47.504308" lon="7.864735">
        <ele>450.116720</ele>
        <time>2021-11-07T15:16:36.442Z</time>
      </trkpt>
      <trkpt lat="47.504643" lon="7.864558">
        <ele>448.091362</ele>
        <time>2021-11-07T15:16:39.728Z</time>
      </trkpt>
      <trkpt lat="47.504920" lon="7.864294">
        <ele>446.215494</ele>
        <time>2021-11-07T15:16:42.827Z</time>
      </trkpt>
      <trkpt lat="47.504952" lon="7.864282">
        <ele>446.027530</ele>
        <time>2021-11-07T15:16:43.111Z</time>
      </trkpt>
      <trkpt lat="47.504995" lon="7.864288">
        <ele>445.781602</ele>
        <time>2021-11-07T15:16:43.517Z</time>
      </trkpt>
      <trkpt lat="47.505256" lon="7.864486">
        <ele>444.111679</ele>
        <time>2021-11-07T15:16:46.372Z</time>
      </trkpt>
      <trkpt lat="47.505405" lon="7.864527">
        <ele>443.248736</ele>
        <time>2021-11-07T15:16:47.760Z</time>
      </trkpt>
      <trkpt lat="47.505441" lon="7.864505">
        <ele>443.026972</ele>
        <time>2021-11-07T15:16:48.116Z</time>
      </trkpt>
      <trkpt lat="47.505465" lon="7.864478">
        <ele>442.855331</ele>
        <time>2021-11-07T15:16:48.389Z</time>
      </trkpt>
      <trkpt lat="47.505507" lon="7.864261">
        <ele>442.071380</ele>
        <time>2021-11-07T15:16:49.913Z</time>
      </trkpt>
      <trkpt lat="47.505513" lon="7.864163">
        <ele>441.817709</ele>
        <time>2021-11-07T15:16:50.535Z</time>
      </trkpt>
      <trkpt lat="47.505528" lon="7.864048">
        <ele>441.515772</ele>
        <time>2021-11-07T15:16:51.319Z</time>
      </trkpt>
      <trkpt lat="47.505633" lon="7.863539">
        <ele>440.143792</ele>
        <time>2021-11-07T15:16:54.862Z</time>
      </trkpt>
      <trkpt lat="47.505675" lon="7.863444">
        <ele>439.851103</ele>
        <time>2021-11-07T15:16:55.581Z</time>
      </trkpt>
      <trkpt lat="47.505692" lon="7.863406">
        <ele>439.733608</ele>
        <time>2021-11-07T15:16:55.941Z</time>
      </trkpt>
      <trkpt lat="47.505748" lon="7.863314">
        <ele>439.414360</ele>
        <time>2021-11-07T15:16:56.911Z</time>
      </trkpt>
      <trkpt lat="47.505782" lon="7.863270">
        <ele>439.242019</ele>
        <time>2021-11-07T15:16:57.310Z</time>
      </trkpt>
      <trkpt lat="47.506122" lon="7.863012">
        <ele>437.783976</ele>
        <time>2021-11-07T15:17:01.147Z</time>
      </trkpt>
      <trkpt lat="47.506215" lon="7.862947">
        <ele>437.391501</ele>
        <time>2021-11-07T15:17:02.151Z</time>
      </trkpt>
      <trkpt lat="47.506248" lon="7.862922">
        <ele>437.250034</ele>
        <time>2021-11-07T15:17:02.494Z</time>
      </trkpt>
      <trkpt lat="47.506544" lon="7.862713">
        <ele>435.998526</ele>
        <time>2021-11-07T15:17:05.739Z</time>
      </trkpt>
      <trkpt lat="47.506679" lon="7.862634">
        <ele>435.444547</ele>
        <time>2021-11-07T15:17:07.214Z</time>
      </trkpt>
      <trkpt lat="47.507294" lon="7.862232">
        <ele>433.549604</ele>
        <time>2021-11-07T15:17:13.993Z</time>
      </trkpt>
      <trkpt lat="47.507355" lon="7.862189">
        <ele>433.360943</ele>
        <time>2021-11-07T15:17:14.793Z</time>
      </trkpt>
      <trkpt lat="47.507509" lon="7.862078">
        <ele>432.882651</ele>
        <time>2021-11-07T15:17:16.553Z</time>
      </trkpt>
      <trkpt lat="47.507702" lon="7.861899">
        <ele>432.246689</ele>
        <time>2021-11-07T15:17:18.987Z</time>
      </trkpt>
      <trkpt lat="47.507768" lon="7.861796">
        <ele>431.978899</ele>
        <time>2021-11-07T15:17:20.002Z</time>
      </trkpt>
      <trkpt lat="47.507840" lon="7.861638">
        <ele>431.619398</ele>
        <time>2021-11-07T15:17:21.334Z</time>
      </trkpt>
      <trkpt lat="47.507928" lon="7.861309">
        <ele>430.951946</ele>
        <time>2021-11-07T15:17:23.962Z</time>
      </trkpt>
      <trkpt lat="47.508015" lon="7.860357">
        <ele>429.433438</ele>
        <time>2021-11-07T15:17:30.807Z</time>
      </trkpt>
      <trkpt lat="47.508332" lon="7.859103">
        <ele>427.517421</ele>
        <time>2021-11-07T15:17:40.428Z</time>
      </trkpt>
      <trkpt lat="47.508349" lon="7.859039">
        <ele>427.419011</ele>
        <time>2021-11-07T15:17:40.937Z</time>
      </trkpt>
      <trkpt lat="47.508381" lon="7.858911">
        <ele>427.223701</ele>
        <time>2021-11-07T15:17:41.927Z</time>
      </trkpt>
      <trkpt lat="47.508421" lon="7.858745">
        <ele>426.971494</ele>
        <time>2021-11-07T15:17:43.322Z</time>
      </trkpt>
      <trkpt lat="47.508474" lon="7.858558">
        <ele>426.681298</ele>
        <time>2021-11-07T15:17:44.886Z</time>
      </trkpt>
      <trkpt lat="47.508546" lon="7.858348">
        <ele>426.579140</ele>
        <time>2021-11-07T15:17:46.656Z</time>
      </trkpt>
      <trkpt lat="47.508916" lon="7.857621">
        <ele>426.794595</ele>
        <time>2021-11-07T15:17:54.653Z</time>
      </trkpt>
      <trkpt lat="47.509118" lon="7.857296">
        <ele>426.899132</ele>
        <time>2021-11-07T15:17:59.535Z</time>
      </trkpt>
      <trkpt lat="47.509242" lon="7.857142">
        <ele>426.955848</ele>
        <time>2021-11-07T15:18:02.311Z</time>
      </trkpt>
      <trkpt lat="47.509612" lon="7.856783">
        <ele>427.110865</ele>
        <time>2021-11-07T15:18:11.261Z</time>
      </trkpt>
      <trkpt lat="47.509866" lon="7.856623">
        <ele>427.335551</ele>
        <time>2021-11-07T15:18:17.729Z</time>
      </trkpt>
      <trkpt lat="47.510645" lon="7.856175">
        <ele>428.817434</ele>
        <time>2021-11-07T15:18:38.260Z</time>
      </trkpt>
      <trkpt lat="47.512091" lon="7.855323">
        <ele>430.671404</ele>
        <time>2021-11-07T15:19:09.777Z</time>
      </trkpt>
      <trkpt lat="47.512545" lon="7.855000">
        <ele>430.896946</ele>
        <time>2021-11-07T15:19:17.898Z</time>
      </trkpt>
      <trkpt lat="47.512998" lon="7.854574">
        <ele>431.137245</ele>
        <time>2021-11-07T15:19:25.632Z</time>
      </trkpt>
      <trkpt lat="47.513025" lon="7.854549">
        <ele>431.151504</ele>
        <time>2021-11-07T15:19:25.927Z</time>
      </trkpt>
      <trkpt lat="47.513112" lon="7.854470">
        <ele>431.065005</ele>
        <time>2021-11-07T15:19:27.431Z</time>
      </trkpt>
      <trkpt lat="47.513384" lon="7.854250">
        <ele>430.508410</ele>
        <time>2021-11-07T15:19:31.355Z</time>
      </trkpt>
      <trkpt lat="47.513406" lon="7.854237">
        <ele>430.465872</ele>
        <time>2021-11-07T15:19:31.625Z</time>
      </trkpt>
      <trkpt lat="47.513486" lon="7.854188">
        <ele>430.310399</ele>
        <time>2021-11-07T15:19:33.490Z</time>
      </trkpt>
      <trkpt lat="47.514548" lon="7.853897">
        <ele>428.370867</ele>
        <time>2021-11-07T15:19:45.541Z</time>
      </trkpt>
      <trkpt lat="47.515319" lon="7.853580">
        <ele>424.826361</ele>
        <time>2021-11-07T15:19:53.469Z</time>
      </trkpt>
      <trkpt lat="47.516157" lon="7.853414">
        <ele>420.130109</ele>
        <time>2021-11-07T15:20:01.236Z</time>
      </trkpt>
      <trkpt lat="47.517407" lon="7.852910">
        <ele>411.217795</ele>
        <time>2021-11-07T15:20:12.720Z</time>
      </trkpt>
      <trkpt lat="47.518274" lon="7.852715">
        <ele>404.680073</ele>
        <time>2021-11-07T15:20:20.554Z</time>
      </trkpt>
      <trkpt lat="47.518338" lon="7.852687">
        <ele>404.233531</ele>
        <time>2021-11-07T15:20:21.150Z</time>
      </trkpt>
      <trkpt lat="47.518404" lon="7.852651">
        <ele>403.783756</ele>
        <time>2021-11-07T15:20:21.745Z</time>
      </trkpt>
      <trkpt lat="47.519059" lon="7.852195">
        <ele>399.155388</ele>
        <time>2021-11-07T15:20:28.299Z</time>
      </trkpt>
      <trkpt lat="47.519998" lon="7.851794">
        <ele>392.929257</ele>
        <time>2021-11-07T15:20:37.286Z</time>
      </trkpt>
      <trkpt lat="47.520894" lon="7.851134">
        <ele>387.645293</ele>
        <time>2021-11-07T15:20:46.615Z</time>
      </trkpt>
      <trkpt lat="47.521382" lon="7.850770">
        <ele>384.760188</ele>
        <time>2021-11-07T15:20:51.705Z</time>
      </trkpt>
      <trkpt lat="47.521526" lon="7.850659">
        <ele>383.903012</ele>
        <time>2021-11-07T15:20:53.276Z</time>
      </trkpt>
      <trkpt lat="47.521788" lon="7.850457">
        <ele>382.636167</ele>
        <time>2021-11-07T15:20:56.081Z</time>
      </trkpt>
      <trkpt lat="47.521905" lon="7.850364">
        <ele>382.106268</ele>
        <time>2021-11-07T15:20:57.363Z</time>
      </trkpt>
      <trkpt lat="47.522016" lon="7.850249">
        <ele>381.565676</ele>
        <time>2021-11-07T15:20:58.627Z</time>
      </trkpt>
      <trkpt lat="47.522383" lon="7.849771">
        <ele>379.615288</ele>
        <time>2021-11-07T15:21:03.384Z</time>
      </trkpt>
      <trkpt lat="47.523462" lon="7.848071">
        <ele>374.276647</ele>
        <time>2021-11-07T15:21:19.244Z</time>
      </trkpt>
      <trkpt lat="47.523494" lon="7.848012">
        <ele>374.136413</ele>
        <time>2021-11-07T15:21:19.767Z</time>
      </trkpt>
      <trkpt lat="47.523555" lon="7.847886">
        <ele>373.849112</ele>
        <time>2021-11-07T15:21:20.835Z</time>
      </trkpt>
      <trkpt lat="47.523686" lon="7.847545">
        <ele>373.122093</ele>
        <time>2021-11-07T15:21:23.668Z</time>
      </trkpt>
      <trkpt lat="47.523802" lon="7.847022">
        <ele>372.101968</ele>
        <time>2021-11-07T15:21:27.616Z</time>
      </trkpt>
      <trkpt lat="47.523835" lon="7.846794">
        <ele>371.669859</ele>
        <time>2021-11-07T15:21:29.283Z</time>
      </trkpt>
      <trkpt lat="47.523853" lon="7.846641">
        <ele>371.406999</ele>
        <time>2021-11-07T15:21:30.426Z</time>
      </trkpt>
      <trkpt lat="47.524021" lon="7.844415">
        <ele>369.466136</ele>
        <time>2021-11-07T15:21:47.911Z</time>
      </trkpt>
      <trkpt lat="47.524038" lon="7.844197">
        <ele>369.275982</ele>
        <time>2021-11-07T15:21:49.877Z</time>
      </trkpt>
      <trkpt lat="47.524060" lon="7.843958">
        <ele>369.100919</ele>
        <time>2021-11-07T15:21:52.541Z</time>
      </trkpt>
      <trkpt lat="47.524194" lon="7.842950">
        <ele>368.770967</ele>
        <time>2021-11-07T15:22:02.447Z</time>
      </trkpt>
      <trkpt lat="47.524379" lon="7.841758">
        <ele>368.378152</ele>
        <time>2021-11-07T15:22:13.587Z</time>
      </trkpt>
      <trkpt lat="47.524396" lon="7.841663">
        <ele>368.346588</ele>
        <time>2021-11-07T15:22:14.469Z</time>
      </trkpt>
      <trkpt lat="47.524496" lon="7.841003">
        <ele>367.773677</ele>
        <time>2021-11-07T15:22:20.097Z</time>
      </trkpt>
      <trkpt lat="47.524543" lon="7.840592">
        <ele>367.289964</ele>
        <time>2021-11-07T15:22:23.530Z</time>
      </trkpt>
      <trkpt lat="47.524580" lon="7.840241">
        <ele>366.877733</ele>
        <time>2021-11-07T15:22:26.231Z</time>
      </trkpt>
      <trkpt lat="47.524591" lon="7.839934">
        <ele>366.520991</ele>
        <time>2021-11-07T15:22:28.579Z</time>
      </trkpt>
      <trkpt lat="47.524599" lon="7.839536">
        <ele>366.058950</ele>
        <time>2021-11-07T15:22:31.565Z</time>
      </trkpt>
      <trkpt lat="47.524607" lon="7.839320">
        <ele>365.807928</ele>
        <time>2021-11-07T15:22:33.056Z</time>
      </trkpt>
      <trkpt lat="47.524625" lon="7.839029">
        <ele>365.468840</ele>
        <time>2021-11-07T15:22:35.222Z</time>
      </trkpt>
      <trkpt lat="47.524643" lon="7.838749">
        <ele>365.120342</ele>
        <time>2021-11-07T15:22:37.160Z</time>
      </trkpt>
      <trkpt lat="47.524669" lon="7.838491">
        <ele>364.609730</ele>
        <time>2021-11-07T15:22:39.084Z</time>
      </trkpt>
      <trkpt lat="47.524759" lon="7.837961">
        <ele>363.539989</ele>
        <time>2021-11-07T15:22:42.960Z</time>
      </trkpt>
      <trkpt lat="47.525838" lon="7.833881">
        <ele>354.713736</ele>
        <time>2021-11-07T15:23:13.097Z</time>
      </trkpt>
      <trkpt lat="47.525904" lon="7.833621">
        <ele>354.227273</ele>
        <time>2021-11-07T15:23:15.074Z</time>
      </trkpt>
      <trkpt lat="47.525964" lon="7.833378">
        <ele>353.825944</ele>
        <time>2021-11-07T15:23:16.880Z</time>
      </trkpt>
      <trkpt lat="47.526147" lon="7.832235">
        <ele>352.003870</ele>
        <time>2021-11-07T15:23:25.262Z</time>
      </trkpt>
      <trkpt lat="47.526239" lon="7.831314">
        <ele>350.559753</ele>
        <time>2021-11-07T15:23:32.156Z</time>
      </trkpt>
      <trkpt lat="47.526298" lon="7.830666">
        <ele>349.849321</ele>
        <time>2021-11-07T15:23:37.287Z</time>
      </trkpt>
      <trkpt lat="47.526355" lon="7.830057">
        <ele>349.253425</ele>
        <time>2021-11-07T15:23:42.167Z</time>
      </trkpt>
      <trkpt lat="47.526430" lon="7.829316">
        <ele>348.527214</ele>
        <time>2021-11-07T15:23:48.165Z</time>
      </trkpt>
      <trkpt lat="47.526641" lon="7.828028">
        <ele>347.163820</ele>
        <time>2021-11-07T15:23:58.464Z</time>
      </trkpt>
      <trkpt lat="47.526684" lon="7.827311">
        <ele>346.362579</ele>
        <time>2021-11-07T15:24:04.101Z</time>
      </trkpt>
      <trkpt lat="47.526680" lon="7.826905">
        <ele>345.910609</ele>
        <time>2021-11-07T15:24:07.222Z</time>
      </trkpt>
      <trkpt lat="47.526676" lon="7.826583">
        <ele>345.552128</ele>
        <time>2021-11-07T15:24:09.656Z</time>
      </trkpt>
      <trkpt lat="47.526690" lon="7.825476">
        <ele>344.165320</ele>
        <time>2021-11-07T15:24:17.980Z</time>
      </trkpt>
      <trkpt lat="47.526987" lon="7.822298">
        <ele>339.594506</ele>
        <time>2021-11-07T15:24:41.296Z</time>
      </trkpt>
      <trkpt lat="47.527033" lon="7.821923">
        <ele>339.085845</ele>
        <time>2021-11-07T15:24:44.123Z</time>
      </trkpt>
      <trkpt lat="47.527110" lon="7.821342">
        <ele>338.295658</ele>
        <time>2021-11-07T15:24:48.593Z</time>
      </trkpt>
      <trkpt lat="47.527128" lon="7.821204">
        <ele>338.108081</ele>
        <time>2021-11-07T15:24:49.661Z</time>
      </trkpt>
      <trkpt lat="47.527223" lon="7.820442">
        <ele>337.100052</ele>
        <time>2021-11-07T15:24:55.540Z</time>
      </trkpt>
      <trkpt lat="47.527258" lon="7.820150">
        <ele>336.741340</ele>
        <time>2021-11-07T15:24:57.824Z</time>
      </trkpt>
      <trkpt lat="47.527283" lon="7.819942">
        <ele>336.485798</ele>
        <time>2021-11-07T15:24:59.389Z</time>
      </trkpt>
      <trkpt lat="47.527327" lon="7.819619">
        <ele>336.087240</ele>
        <time>2021-11-07T15:25:01.890Z</time>
      </trkpt>
      <trkpt lat="47.527349" lon="7.819451">
        <ele>335.880249</ele>
        <time>2021-11-07T15:25:03.191Z</time>
      </trkpt>
      <trkpt lat="47.527408" lon="7.818945">
        <ele>335.259157</ele>
        <time>2021-11-07T15:25:07.136Z</time>
      </trkpt>
      <trkpt lat="47.527455" lon="7.818544">
        <ele>334.766874</ele>
        <time>2021-11-07T15:25:10.263Z</time>
      </trkpt>
      <trkpt lat="47.527466" lon="7.818406">
        <ele>334.598797</ele>
        <time>2021-11-07T15:25:11.293Z</time>
      </trkpt>
      <trkpt lat="47.527471" lon="7.818258">
        <ele>334.419560</ele>
        <time>2021-11-07T15:25:12.400Z</time>
      </trkpt>
      <trkpt lat="47.527477" lon="7.818068">
        <ele>334.189494</ele>
        <time>2021-11-07T15:25:13.820Z</time>
      </trkpt>
      <trkpt lat="47.527477" lon="7.817911">
        <ele>333.970256</ele>
        <time>2021-11-07T15:25:14.953Z</time>
      </trkpt>
      <trkpt lat="47.527471" lon="7.817746">
        <ele>333.725684</ele>
        <time>2021-11-07T15:25:16.156Z</time>
      </trkpt>
      <trkpt lat="47.527432" lon="7.817173">
        <ele>332.873281</ele>
        <time>2021-11-07T15:25:20.280Z</time>
      </trkpt>
      <trkpt lat="47.527388" lon="7.816407">
        <ele>331.735419</ele>
        <time>2021-11-07T15:25:25.842Z</time>
      </trkpt>
      <trkpt lat="47.527376" lon="7.816175">
        <ele>331.391027</ele>
        <time>2021-11-07T15:25:27.511Z</time>
      </trkpt>
      <trkpt lat="47.527366" lon="7.816038">
        <ele>331.187069</ele>
        <time>2021-11-07T15:25:28.527Z</time>
      </trkpt>
      <trkpt lat="47.527362" lon="7.815959">
        <ele>331.069812</ele>
        <time>2021-11-07T15:25:29.138Z</time>
      </trkpt>
      <trkpt lat="47.527361" lon="7.815943">
        <ele>331.046029</ele>
        <time>2021-11-07T15:25:29.263Z</time>
      </trkpt>
      <trkpt lat="47.527346" lon="7.815799">
        <ele>330.830371</ele>
        <time>2021-11-07T15:25:30.283Z</time>
      </trkpt>
      <trkpt lat="47.527320" lon="7.815661">
        <ele>330.618313</ele>
        <time>2021-11-07T15:25:31.330Z</time>
      </trkpt>
      <trkpt lat="47.527292" lon="7.815550">
        <ele>330.442930</ele>
        <time>2021-11-07T15:25:32.192Z</time>
      </trkpt>
      <trkpt lat="47.527206" lon="7.815349">
        <ele>330.124020</ele>
        <time>2021-11-07T15:25:33.916Z</time>
      </trkpt>
      <trkpt lat="47.527153" lon="7.815269">
        <ele>330.014825</ele>
        <time>2021-11-07T15:25:34.716Z</time>
      </trkpt>
      <trkpt lat="47.527105" lon="7.815211">
        <ele>329.925437</ele>
        <time>2021-11-07T15:25:35.440Z</time>
      </trkpt>
      <trkpt lat="47.526665" lon="7.814850">
        <ele>329.199642</ele>
        <time>2021-11-07T15:25:41.177Z</time>
      </trkpt>
      <trkpt lat="47.526655" lon="7.814822">
        <ele>329.168781</ele>
        <time>2021-11-07T15:25:41.441Z</time>
      </trkpt>
      <trkpt lat="47.526652" lon="7.814787">
        <ele>329.134406</ele>
        <time>2021-11-07T15:25:41.669Z</time>
      </trkpt>
      <trkpt lat="47.526961" lon="7.813898">
        <ele>328.160227</ele>
        <time>2021-11-07T15:25:49.775Z</time>
      </trkpt>
      <trkpt lat="47.526991" lon="7.813710">
        <ele>327.972012</ele>
        <time>2021-11-07T15:25:51.218Z</time>
      </trkpt>
      <trkpt lat="47.527017" lon="7.813562">
        <ele>327.823015</ele>
        <time>2021-11-07T15:25:54.970Z</time>
      </trkpt>
      <trkpt lat="47.527029" lon="7.813504">
        <ele>327.763912</ele>
        <time>2021-11-07T15:25:56.471Z</time>
      </trkpt>
      <trkpt lat="47.527062" lon="7.813419">
        <ele>327.668383</ele>
        <time>2021-11-07T15:25:58.853Z</time>
      </trkpt>
      <trkpt lat="47.527100" lon="7.813322">
        <ele>327.567621</ele>
        <time>2021-11-07T15:26:01.275Z</time>
      </trkpt>
      <trkpt lat="47.527132" lon="7.813271">
        <ele>327.516869</ele>
        <time>2021-11-07T15:26:02.757Z</time>
      </trkpt>
      <trkpt lat="47.527245" lon="7.813136">
        <ele>327.360124</ele>
        <time>2021-11-07T15:26:07.732Z</time>
      </trkpt>
      <trkpt lat="47.527344" lon="7.813003">
        <ele>327.215816</ele>
        <time>2021-11-07T15:26:12.470Z</time>
      </trkpt>
      <trkpt lat="47.527405" lon="7.812921">
        <ele>327.126875</ele>
        <time>2021-11-07T15:26:15.000Z</time>
      </trkpt>
      <trkpt lat="47.527523" lon="7.812743">
        <ele>326.945029</ele>
        <time>2021-11-07T15:26:20.765Z</time>
      </trkpt>
      <trkpt lat="47.527551" lon="7.812698">
        <ele>326.900420</ele>
        <time>2021-11-07T15:26:22.240Z</time>
      </trkpt>
      <trkpt lat="47.527857" lon="7.812131">
        <ele>326.371277</ele>
        <time>2021-11-07T15:26:38.597Z</time>
      </trkpt>
      <trkpt lat="47.527992" lon="7.811882">
        <ele>326.138485</ele>
        <time>2021-11-07T15:26:45.744Z</time>
      </trkpt>
      <trkpt lat="47.528071" lon="7.811726">
        <ele>325.996333</ele>
        <time>2021-11-07T15:26:50.301Z</time>
      </trkpt>
      <trkpt lat="47.528166" lon="7.811494">
        <ele>325.798537</ele>
        <time>2021-11-07T15:26:56.398Z</time>
      </trkpt>
      <trkpt lat="47.528485" lon="7.810633">
        <ele>325.164612</ele>
        <time>2021-11-07T15:27:18.737Z</time>
      </trkpt>
      <trkpt lat="47.528551" lon="7.810479">
        <ele>325.050829</ele>
        <time>2021-11-07T15:27:22.688Z</time>
      </trkpt>
      <trkpt lat="47.528632" lon="7.810311">
        <ele>324.922055</ele>
        <time>2021-11-07T15:27:27.536Z</time>
      </trkpt>
      <trkpt lat="47.528791" lon="7.810026">
        <ele>324.691436</ele>
        <time>2021-11-07T15:27:30.409Z</time>
      </trkpt>
      <trkpt lat="47.529100" lon="7.809485">
        <ele>324.249413</ele>
        <time>2021-11-07T15:27:36.291Z</time>
      </trkpt>
      <trkpt lat="47.529208" lon="7.809338">
        <ele>324.113899</ele>
        <time>2021-11-07T15:27:38.082Z</time>
      </trkpt>
      <trkpt lat="47.529274" lon="7.809267">
        <ele>324.038537</ele>
        <time>2021-11-07T15:27:39.158Z</time>
      </trkpt>
      <trkpt lat="47.529336" lon="7.809212">
        <ele>323.995623</ele>
        <time>2021-11-07T15:27:40.549Z</time>
      </trkpt>
      <trkpt lat="47.529513" lon="7.809105">
        <ele>324.058752</ele>
        <time>2021-11-07T15:27:43.026Z</time>
      </trkpt>
      <trkpt lat="47.529594" lon="7.809061">
        <ele>324.087241</ele>
        <time>2021-11-07T15:27:44.147Z</time>
      </trkpt>
      <trkpt lat="47.529966" lon="7.808858">
        <ele>324.218151</ele>
        <time>2021-11-07T15:27:50.714Z</time>
      </trkpt>
      <trkpt lat="47.530041" lon="7.808819">
        <ele>324.244399</ele>
        <time>2021-11-07T15:27:52.286Z</time>
      </trkpt>
      <trkpt lat="47.530543" lon="7.808552">
        <ele>324.420528</ele>
        <time>2021-11-07T15:28:01.052Z</time>
      </trkpt>
      <trkpt lat="47.530585" lon="7.808529">
        <ele>324.435314</ele>
        <time>2021-11-07T15:28:01.801Z</time>
      </trkpt>
      <trkpt lat="47.530684" lon="7.808469">
        <ele>324.470636</ele>
        <time>2021-11-07T15:28:04.056Z</time>
      </trkpt>
      <trkpt lat="47.531066" lon="7.808197">
        <ele>324.585180</ele>
        <time>2021-11-07T15:28:11.571Z</time>
      </trkpt>
      <trkpt lat="47.531380" lon="7.807943">
        <ele>324.593448</ele>
        <time>2021-11-07T15:28:17.875Z</time>
      </trkpt>
      <trkpt lat="47.531735" lon="7.807655">
        <ele>324.602802</ele>
        <time>2021-11-07T15:28:24.236Z</time>
      </trkpt>
      <trkpt lat="47.532412" lon="7.807037">
        <ele>324.621179</ele>
        <time>2021-11-07T15:28:35.544Z</time>
      </trkpt>
      <trkpt lat="47.532581" lon="7.806843">
        <ele>324.573568</ele>
        <time>2021-11-07T15:28:38.421Z</time>
      </trkpt>
      <trkpt lat="47.532546" lon="7.806703">
        <ele>324.480867</ele>
        <time>2021-11-07T15:28:40.066Z</time>
      </trkpt>
      <trkpt lat="47.533091" lon="7.806305">
        <ele>323.922019</ele>
        <time>2021-11-07T15:28:50.525Z</time>
      </trkpt>
      <trkpt lat="47.533723" lon="7.806018">
        <ele>323.314067</ele>
        <time>2021-11-07T15:29:01.610Z</time>
      </trkpt>
      <trkpt lat="47.534648" lon="7.805785">
        <ele>322.913289</ele>
        <time>2021-11-07T15:29:18.854Z</time>
      </trkpt>
      <trkpt lat="47.534894" lon="7.805725">
        <ele>322.887979</ele>
        <time>2021-11-07T15:29:23.596Z</time>
      </trkpt>
      <trkpt lat="47.535092" lon="7.805671">
        <ele>322.867540</ele>
        <time>2021-11-07T15:29:27.960Z</time>
      </trkpt>
      <trkpt lat="47.535828" lon="7.805308">
        <ele>322.788789</ele>
        <time>2021-11-07T15:29:44.205Z</time>
      </trkpt>
      <trkpt lat="47.536875" lon="7.804558">
        <ele>322.901654</ele>
        <time>2021-11-07T15:30:10.137Z</time>
      </trkpt>
      <trkpt lat="47.537755" lon="7.803639">
        <ele>322.573881</ele>
        <time>2021-11-07T15:30:30.275Z</time>
      </trkpt>
      <trkpt lat="47.538164" lon="7.803170">
        <ele>322.107547</ele>
        <time>2021-11-07T15:30:39.422Z</time>
      </trkpt>
      <trkpt lat="47.538256" lon="7.803059">
        <ele>322.000567</ele>
        <time>2021-11-07T15:30:41.260Z</time>
      </trkpt>
      <trkpt lat="47.540006" lon="7.800680">
        <ele>320.099868</ele>
        <time>2021-11-07T15:31:22.153Z</time>
      </trkpt>
      <trkpt lat="47.540192" lon="7.800458">
        <ele>320.069339</ele>
        <time>2021-11-07T15:31:26.700Z</time>
      </trkpt>
      <trkpt lat="47.540260" lon="7.800353">
        <ele>320.165557</ele>
        <time>2021-11-07T15:31:29.765Z</time>
      </trkpt>
      <trkpt lat="47.540644" lon="7.800163">
        <ele>320.562140</ele>
        <time>2021-11-07T15:31:39.561Z</time>
      </trkpt>
      <trkpt lat="47.540897" lon="7.800171">
        <ele>320.810027</ele>
        <time>2021-11-07T15:31:45.728Z</time>
      </trkpt>
      <trkpt lat="47.541705" lon="7.800028">
        <ele>321.607145</ele>
        <time>2021-11-07T15:32:07.500Z</time>
      </trkpt>
      <trkpt lat="47.542307" lon="7.799830">
        <ele>320.957036</ele>
        <time>2021-11-07T15:32:22.474Z</time>
      </trkpt>
      <trkpt lat="47.542998" lon="7.799859">
        <ele>319.806266</ele>
        <time>2021-11-07T15:32:34.703Z</time>
      </trkpt>
      <trkpt lat="47.544071" lon="7.799629">
        <ele>316.097040</ele>
        <time>2021-11-07T15:32:49.625Z</time>
      </trkpt>
      <trkpt lat="47.544184" lon="7.799620">
        <ele>315.430924</ele>
        <time>2021-11-07T15:32:51.014Z</time>
      </trkpt>
      <trkpt lat="47.544345" lon="7.799570">
        <ele>314.462624</ele>
        <time>2021-11-07T15:32:53.208Z</time>
      </trkpt>
      <trkpt lat="47.544568" lon="7.799371">
        <ele>312.930219</ele>
        <time>2021-11-07T15:32:56.565Z</time>
      </trkpt>
      <trkpt lat="47.544749" lon="7.799388">
        <ele>311.862653</ele>
        <time>2021-11-07T15:32:59.007Z</time>
      </trkpt>
      <trkpt lat="47.544827" lon="7.799356">
        <ele>311.386239</ele>
        <time>2021-11-07T15:32:59.990Z</time>
      </trkpt>
      <trkpt lat="47.545096" lon="7.799250">
        <ele>309.747759</ele>
        <time>2021-11-07T15:33:03.709Z</time>
      </trkpt>
      <trkpt lat="47.545182" lon="7.799205">
        <ele>309.210886</ele>
        <time>2021-11-07T15:33:04.806Z</time>
      </trkpt>
      <trkpt lat="47.545291" lon="7.799089">
        <ele>308.420888</ele>
        <time>2021-11-07T15:33:06.559Z</time>
      </trkpt>
      <trkpt lat="47.545396" lon="7.798977">
        <ele>307.841743</ele>
        <time>2021-11-07T15:33:08.363Z</time>
      </trkpt>
      <trkpt lat="47.545449" lon="7.798705">
        <ele>307.122732</ele>
        <time>2021-11-07T15:33:10.764Z</time>
      </trkpt>
      <trkpt lat="47.545511" lon="7.798680">
        <ele>306.880969</ele>
        <time>2021-11-07T15:33:11.596Z</time>
      </trkpt>
      <trkpt lat="47.545581" lon="7.798713">
        <ele>306.604579</ele>
        <time>2021-11-07T15:33:12.633Z</time>
      </trkpt>
      <trkpt lat="47.545731" lon="7.798810">
        <ele>305.988777</ele>
        <time>2021-11-07T15:33:14.840Z</time>
      </trkpt>
      <trkpt lat="47.545807" lon="7.798846">
        <ele>305.688565</ele>
        <time>2021-11-07T15:33:15.948Z</time>
      </trkpt>
      <trkpt lat="47.546418" lon="7.798980">
        <ele>303.364612</ele>
        <time>2021-11-07T15:33:24.795Z</time>
      </trkpt>
      <trkpt lat="47.547540" lon="7.799538">
        <ele>300.975649</ele>
        <time>2021-11-07T15:33:44.519Z</time>
      </trkpt>
      <trkpt lat="47.547912" lon="7.799646">
        <ele>300.733593</ele>
        <time>2021-11-07T15:33:51.899Z</time>
      </trkpt>
      <trkpt lat="47.548459" lon="7.799691">
        <ele>300.383771</ele>
        <time>2021-11-07T15:34:02.837Z</time>
      </trkpt>
      <trkpt lat="47.548535" lon="7.799720">
        <ele>300.333658</ele>
        <time>2021-11-07T15:34:04.357Z</time>
      </trkpt>
      <trkpt lat="47.548514" lon="7.799795">
        <ele>300.298663</ele>
        <time>2021-11-07T15:34:05.421Z</time>
      </trkpt>
      <trkpt lat="47.548519" lon="7.799896">
        <ele>300.255015</ele>
        <time>2021-11-07T15:34:06.776Z</time>
      </trkpt>
      <trkpt lat="47.548545" lon="7.800404">
        <ele>300.226102</ele>
        <time>2021-11-07T15:34:13.567Z</time>
      </trkpt>
      <trkpt lat="47.548560" lon="7.800672">
        <ele>300.213656</ele>
        <time>2021-11-07T15:34:17.259Z</time>
      </trkpt>
      <trkpt lat="47.548569" lon="7.800838">
        <ele>300.205948</ele>
        <time>2021-11-07T15:34:19.503Z</time>
      </trkpt>
      <trkpt lat="47.548576" lon="7.800968">
        <ele>300.199912</ele>
        <time>2021-11-07T15:34:21.279Z</time>
      </trkpt>
      <trkpt lat="47.548596" lon="7.801213">
        <ele>300.188490</ele>
        <time>2021-11-07T15:34:24.658Z</time>
      </trkpt>
      <trkpt lat="47.548607" lon="7.801690">
        <ele>300.166401</ele>
        <time>2021-11-07T15:34:31.158Z</time>
      </trkpt>
      <trkpt lat="47.548626" lon="7.802129">
        <ele>300.146041</ele>
        <time>2021-11-07T15:34:37.087Z</time>
      </trkpt>
      <trkpt lat="47.548877" lon="7.802168">
        <ele>300.128736</ele>
        <time>2021-11-07T15:34:42.082Z</time>
      </trkpt>
      <trkpt lat="47.549410" lon="7.802226">
        <ele>299.972881</ele>
        <time>2021-11-07T15:34:52.512Z</time>
      </trkpt>
      <trkpt lat="47.549481" lon="7.802234">
        <ele>299.950685</ele>
        <time>2021-11-07T15:34:53.837Z</time>
      </trkpt>
      <trkpt lat="47.549879" lon="7.802247">
        <ele>299.826587</ele>
        <time>2021-11-07T15:35:01.302Z</time>
      </trkpt>
      <trkpt lat="47.550146" lon="7.802262">
        <ele>299.743296</ele>
        <time>2021-11-07T15:35:06.383Z</time>
      </trkpt>
      <trkpt lat="47.550146" lon="7.802262">
        <ele>299.743296</ele>
        <time>2021-11-07T15:35:06.388Z</time>
      </trkpt>
      <trkpt lat="47.550139" lon="7.802751">
        <ele>299.640388</ele>
        <time>2021-11-07T15:35:12.750Z</time>
      </trkpt>
      <trkpt lat="47.550134" lon="7.803051">
        <ele>299.577249</ele>
        <time>2021-11-07T15:35:16.611Z</time>
      </trkpt>
      <trkpt lat="47.550196" lon="7.803120">
        <ele>299.562133</ele>
        <time>2021-11-07T15:35:18.077Z</time>
      </trkpt>
      <trkpt lat="47.550981" lon="7.803132">
        <ele>299.502971</ele>
        <time>2021-11-07T15:35:32.729Z</time>
      </trkpt>
      <trkpt lat="47.551163" lon="7.803129">
        <ele>299.489255</ele>
        <time>2021-11-07T15:35:36.118Z</time>
      </trkpt>
      <trkpt lat="47.551598" lon="7.803160">
        <ele>299.456435</ele>
        <time>2021-11-07T15:35:44.701Z</time>
      </trkpt>
      <trkpt lat="47.551666" lon="7.803144">
        <ele>299.451246</ele>
        <time>2021-11-07T15:35:49.445Z</time>
      </trkpt>
      <trkpt lat="47.551732" lon="7.803125">
        <ele>299.446179</ele>
        <time>2021-11-07T15:35:54.112Z</time>
      </trkpt>
      <trkpt lat="47.551744" lon="7.803277">
        <ele>299.438395</ele>
        <time>2021-11-07T15:35:55.806Z</time>
      </trkpt>
      <trkpt lat="47.551751" lon="7.803369">
        <ele>299.433686</ele>
        <time>2021-11-07T15:35:56.880Z</time>
      </trkpt>
      <trkpt lat="47.551692" lon="7.803510">
        <ele>299.473053</ele>
        <time>2021-11-07T15:35:59.474Z</time>
      </trkpt>
      <trkpt lat="47.551741" lon="7.804294">
        <ele>299.886191</ele>
        <time>2021-11-07T15:36:12.492Z</time>
      </trkpt>
      <trkpt lat="47.551744" lon="7.804473">
        <ele>299.980145</ele>
        <time>2021-11-07T15:36:15.012Z</time>
      </trkpt>
      <trkpt lat="47.551731" lon="7.804667">
        <ele>300.082440</ele>
        <time>2021-11-07T15:36:18.992Z</time>
      </trkpt>
      <trkpt lat="47.551709" lon="7.805000">
        <ele>300.258006</ele>
        <time>2021-11-07T15:36:23.483Z</time>
      </trkpt>
      <trkpt lat="47.551681" lon="7.805477">
        <ele>300.509241</ele>
        <time>2021-11-07T15:36:31.220Z</time>
      </trkpt>
      <trkpt lat="47.551671" lon="7.806117">
        <ele>300.826298</ele>
        <time>2021-11-07T15:36:41.309Z</time>
      </trkpt>
      <trkpt lat="47.551651" lon="7.806246">
        <ele>300.820203</ele>
        <time>2021-11-07T15:36:44.212Z</time>
      </trkpt>
      <trkpt lat="47.551895" lon="7.806278">
        <ele>300.803490</ele>
        <time>2021-11-07T15:36:47.737Z</time>
      </trkpt>
      <trkpt lat="47.552015" lon="7.806307">
        <ele>300.795194</ele>
        <time>2021-11-07T15:36:50.607Z</time>
      </trkpt>
      <trkpt lat="47.552068" lon="7.806445">
        <ele>300.787882</ele>
        <time>2021-11-07T15:36:52.064Z</time>
      </trkpt>
      <trkpt lat="47.552398" lon="7.808880">
        <ele>300.400350</ele>
        <time>2021-11-07T15:37:14.207Z</time>
      </trkpt>
      <trkpt lat="47.552566" lon="7.810386">
        <ele>299.722135</ele>
        <time>2021-11-07T15:37:27.218Z</time>
      </trkpt>
      <trkpt lat="47.552711" lon="7.812955">
        <ele>298.600767</ele>
        <time>2021-11-07T15:37:49.827Z</time>
      </trkpt>
      <trkpt lat="47.552844" lon="7.816432">
        <ele>297.344929</ele>
        <time>2021-11-07T15:38:20.156Z</time>
      </trkpt>
      <trkpt lat="47.552937" lon="7.819051">
        <ele>297.548204</ele>
        <time>2021-11-07T15:38:47.645Z</time>
      </trkpt>
      <trkpt lat="47.552948" lon="7.819358">
        <ele>297.684770</ele>
        <time>2021-11-07T15:38:51.328Z</time>
      </trkpt>
      <trkpt lat="47.552896" lon="7.820699">
        <ele>298.281445</ele>
        <time>2021-11-07T15:39:07.526Z</time>
      </trkpt>
      <trkpt lat="47.552567" lon="7.824508">
        <ele>300.243103</ele>
        <time>2021-11-07T15:39:54.250Z</time>
      </trkpt>
      <trkpt lat="47.552491" lon="7.827227">
        <ele>301.716487</ele>
        <time>2021-11-07T15:40:25.989Z</time>
      </trkpt>
      <trkpt lat="47.552515" lon="7.828094">
        <ele>302.529902</ele>
        <time>2021-11-07T15:40:37.699Z</time>
      </trkpt>
      <trkpt lat="47.552477" lon="7.828294">
        <ele>302.724671</ele>
        <time>2021-11-07T15:40:40.316Z</time>
      </trkpt>
      <trkpt lat="47.552421" lon="7.828481">
        <ele>302.916447</ele>
        <time>2021-11-07T15:40:43.248Z</time>
      </trkpt>
      <trkpt lat="47.552404" lon="7.828582">
        <ele>303.014025</ele>
        <time>2021-11-07T15:40:44.932Z</time>
      </trkpt>
      <trkpt lat="47.552416" lon="7.828822">
        <ele>303.239620</ele>
        <time>2021-11-07T15:40:48.166Z</time>
      </trkpt>
      <trkpt lat="47.552554" lon="7.829266">
        <ele>303.697842</ele>
        <time>2021-11-07T15:40:55.518Z</time>
      </trkpt>
      <trkpt lat="47.552645" lon="7.830686">
        <ele>306.206956</ele>
        <time>2021-11-07T15:41:18.823Z</time>
      </trkpt>
      <trkpt lat="47.552690" lon="7.832598">
        <ele>309.759383</ele>
        <time>2021-11-07T15:41:54.300Z</time>
      </trkpt>
      <trkpt lat="47.552616" lon="7.832891">
        <ele>310.366871</ele>
        <time>2021-11-07T15:41:59.664Z</time>
      </trkpt>
      <trkpt lat="47.552556" lon="7.832977">
        <ele>310.607057</ele>
        <time>2021-11-07T15:42:02.396Z</time>
      </trkpt>
      <trkpt lat="47.552511" lon="7.833072">
        <ele>310.832432</ele>
        <time>2021-11-07T15:42:04.421Z</time>
      </trkpt>
      <trkpt lat="47.552467" lon="7.833198">
        <ele>311.107915</ele>
        <time>2021-11-07T15:42:06.823Z</time>
      </trkpt>
      <trkpt lat="47.552452" lon="7.833284">
        <ele>311.280399</ele>
        <time>2021-11-07T15:42:08.434Z</time>
      </trkpt>
      <trkpt lat="47.552696" lon="7.833789">
        <ele>312.486414</ele>
        <time>2021-11-07T15:42:19.466Z</time>
      </trkpt>
      <trkpt lat="47.552700" lon="7.833938">
        <ele>312.775976</ele>
        <time>2021-11-07T15:42:22.410Z</time>
      </trkpt>
      <trkpt lat="47.552714" lon="7.835010">
        <ele>314.478319</ele>
        <time>2021-11-07T15:42:40.887Z</time>
      </trkpt>
      <trkpt lat="47.552719" lon="7.836790">
        <ele>316.674768</ele>
        <time>2021-11-07T15:43:06.170Z</time>
      </trkpt>
      <trkpt lat="47.552697" lon="7.838068">
        <ele>318.050734</ele>
        <time>2021-11-07T15:43:23.810Z</time>
      </trkpt>
      <trkpt lat="47.552736" lon="7.838578">
        <ele>318.572825</ele>
        <time>2021-11-07T15:43:30.937Z</time>
      </trkpt>
      <trkpt lat="47.552802" lon="7.839009">
        <ele>319.022381</ele>
        <time>2021-11-07T15:43:37.157Z</time>
      </trkpt>
      <trkpt lat="47.552876" lon="7.839287">
        <ele>319.326361</ele>
        <time>2021-11-07T15:43:41.306Z</time>
      </trkpt>
      <trkpt lat="47.552939" lon="7.839526">
        <ele>319.587356</ele>
        <time>2021-11-07T15:43:44.947Z</time>
      </trkpt>
      <trkpt lat="47.553231" lon="7.841529">
        <ele>321.748015</ele>
        <time>2021-11-07T15:44:15.075Z</time>
      </trkpt>
      <trkpt lat="47.553216" lon="7.841849">
        <ele>322.087702</ele>
        <time>2021-11-07T15:44:19.602Z</time>
      </trkpt>
      <trkpt lat="47.553123" lon="7.842222">
        <ele>322.508791</ele>
        <time>2021-11-07T15:44:24.831Z</time>
      </trkpt>
      <trkpt lat="47.553133" lon="7.842431">
        <ele>322.690497</ele>
        <time>2021-11-07T15:44:27.961Z</time>
      </trkpt>
      <trkpt lat="47.552833" lon="7.842495">
        <ele>322.959953</ele>
        <time>2021-11-07T15:44:35.270Z</time>
      </trkpt>
      <trkpt lat="47.552380" lon="7.842592">
        <ele>323.366862</ele>
        <time>2021-11-07T15:44:46.318Z</time>
      </trkpt>
      <trkpt lat="47.551922" lon="7.842704">
        <ele>323.779542</ele>
        <time>2021-11-07T15:44:56.884Z</time>
      </trkpt>
      <trkpt lat="47.551668" lon="7.842770">
        <ele>324.008799</ele>
        <time>2021-11-07T15:45:02.843Z</time>
      </trkpt>
      <trkpt lat="47.551454" lon="7.842815">
        <ele>324.200956</ele>
        <time>2021-11-07T15:45:07.530Z</time>
      </trkpt>
      <trkpt lat="47.551344" lon="7.844621">
        <ele>325.395421</ele>
        <time>2021-11-07T15:45:30.045Z</time>
      </trkpt>
      <trkpt lat="47.551205" lon="7.846694">
        <ele>327.179636</ele>
        <time>2021-11-07T15:45:58.032Z</time>
      </trkpt>
      <trkpt lat="47.551184" lon="7.847206">
        <ele>327.697100</ele>
        <time>2021-11-07T15:46:05.418Z</time>
      </trkpt>
      <trkpt lat="47.551196" lon="7.847517">
        <ele>328.011353</ele>
        <time>2021-11-07T15:46:09.982Z</time>
      </trkpt>
      <trkpt lat="47.551669" lon="7.848083">
        <ele>328.916512</ele>
        <time>2021-11-07T15:46:23.067Z</time>
      </trkpt>
      <trkpt lat="47.551242" lon="7.848702">
        <ele>329.795650</ele>
        <time>2021-11-07T15:46:35.651Z</time>
      </trkpt>
      <trkpt lat="47.550975" lon="7.849066">
        <ele>330.329606</ele>
        <time>2021-11-07T15:46:42.966Z</time>
      </trkpt>
      <trkpt lat="47.550810" lon="7.849346">
        <ele>330.698807</ele>
        <time>2021-11-07T15:46:49.359Z</time>
      </trkpt>
      <trkpt lat="47.550488" lon="7.850081">
        <ele>331.452568</ele>
        <time>2021-11-07T15:47:04.825Z</time>
      </trkpt>
      <trkpt lat="47.550333" lon="7.850434">
        <ele>331.664204</ele>
        <time>2021-11-07T15:47:12.156Z</time>
      </trkpt>
      <trkpt lat="47.550009" lon="7.851173">
        <ele>332.107064</ele>
        <time>2021-11-07T15:47:26.752Z</time>
      </trkpt>
      <trkpt lat="47.549652" lon="7.851969">
        <ele>332.587359</ele>
        <time>2021-11-07T15:47:40.631Z</time>
      </trkpt>
      <trkpt lat="47.549535" lon="7.852225">
        <ele>332.641907</ele>
        <time>2021-11-07T15:47:44.688Z</time>
      </trkpt>
      <trkpt lat="47.549285" lon="7.852784">
        <ele>332.495856</ele>
        <time>2021-11-07T15:47:53.322Z</time>
      </trkpt>
      <trkpt lat="47.549285" lon="7.852783">
        <ele>332.495638</ele>
        <time>2021-11-07T15:47:53.332Z</time>
      </trkpt>
      <trkpt lat="47.549285" lon="7.852784">
        <ele>332.495420</ele>
        <time>2021-11-07T15:47:53.347Z</time>
      </trkpt>
      <trkpt lat="47.549708" lon="7.853279">
        <ele>332.321482</ele>
        <time>2021-11-07T15:48:03.747Z</time>
      </trkpt>
      <trkpt lat="47.550221" lon="7.853833">
        <ele>332.116637</ele>
        <time>2021-11-07T15:48:15.668Z</time>
      </trkpt>
      <trkpt lat="47.549883" lon="7.854434">
        <ele>331.853605</ele>
        <time>2021-11-07T15:48:22.345Z</time>
      </trkpt>
      <trkpt lat="47.549566" lon="7.855225">
        <ele>331.525870</ele>
        <time>2021-11-07T15:48:33.490Z</time>
      </trkpt>
      <trkpt lat="47.549362" lon="7.855774">
        <ele>331.302600</ele>
        <time>2021-11-07T15:48:41.412Z</time>
      </trkpt>
      <trkpt lat="47.548887" lon="7.857308">
        <ele>331.206839</ele>
        <time>2021-11-07T15:49:03.520Z</time>
      </trkpt>
      <trkpt lat="47.548743" lon="7.857692">
        <ele>331.229619</ele>
        <time>2021-11-07T15:49:09.491Z</time>
      </trkpt>
      <trkpt lat="47.548701" lon="7.857893">
        <ele>331.240531</ele>
        <time>2021-11-07T15:49:12.463Z</time>
      </trkpt>
      <trkpt lat="47.548686" lon="7.857973">
        <ele>331.244836</ele>
        <time>2021-11-07T15:49:13.586Z</time>
      </trkpt>
      <trkpt lat="47.548611" lon="7.858381">
        <ele>331.266765</ele>
        <time>2021-11-07T15:49:19.800Z</time>
      </trkpt>
      <trkpt lat="47.548334" lon="7.859801">
        <ele>332.193380</ele>
        <time>2021-11-07T15:49:42.838Z</time>
      </trkpt>
      <trkpt lat="47.548049" lon="7.860929">
        <ele>333.103630</ele>
        <time>2021-11-07T15:50:03.856Z</time>
      </trkpt>
      <trkpt lat="47.547930" lon="7.861711">
        <ele>333.905134</ele>
        <time>2021-11-07T15:50:18.619Z</time>
      </trkpt>
      <trkpt lat="47.547568" lon="7.863151">
        <ele>335.614319</ele>
        <time>2021-11-07T15:50:47.747Z</time>
      </trkpt>
      <trkpt lat="47.547320" lon="7.863864">
        <ele>336.266938</ele>
        <time>2021-11-07T15:51:01.687Z</time>
      </trkpt>
      <trkpt lat="47.546974" lon="7.864423">
        <ele>336.295056</ele>
        <time>2021-11-07T15:51:12.511Z</time>
      </trkpt>
      <trkpt lat="47.546885" lon="7.864500">
        <ele>336.300717</ele>
        <time>2021-11-07T15:51:15.596Z</time>
      </trkpt>
      <trkpt lat="47.546894" lon="7.864837">
        <ele>336.313220</ele>
        <time>2021-11-07T15:51:19.479Z</time>
      </trkpt>
      <trkpt lat="47.546889" lon="7.865225">
        <ele>336.327607</ele>
        <time>2021-11-07T15:51:24.905Z</time>
      </trkpt>
      <trkpt lat="47.546819" lon="7.865489">
        <ele>336.338123</ele>
        <time>2021-11-07T15:51:28.849Z</time>
      </trkpt>
      <trkpt lat="47.546510" lon="7.865766">
        <ele>336.357468</ele>
        <time>2021-11-07T15:51:35.483Z</time>
      </trkpt>
      <trkpt lat="47.546327" lon="7.865959">
        <ele>336.357468</ele>
        <time>2021-11-07T15:51:38.998Z</time>
      </trkpt>
      <trkpt lat="47.546096" lon="7.866147">
        <ele>336.357468</ele>
        <time>2021-11-07T15:51:43.534Z</time>
      </trkpt>
      <trkpt lat="47.545240" lon="7.866887">
        <ele>336.357468</ele>
        <time>2021-11-07T15:51:59.968Z</time>
      </trkpt>
      <trkpt lat="47.545160" lon="7.866985">
        <ele>336.357468</ele>
        <time>2021-11-07T15:52:01.662Z</time>
      </trkpt>
      <trkpt lat="47.545003" lon="7.867278">
        <ele>336.357468</ele>
        <time>2021-11-07T15:52:06.260Z</time>
      </trkpt>
      <trkpt lat="47.544952" lon="7.867327">
        <ele>336.357468</ele>
        <time>2021-11-07T15:52:07.335Z</time>
      </trkpt>
    </trkseg>
  </trk>
</gpx>